Private Wetterstation Schwalmtal/Rainrod
Wetterdaten: aktuell Montag, 28.11.2022 08:55
Datum Zeit Temp. A. Feuchte A. Regen Wind Richtung Richtung Sonnenschein Zeit Regen ET UV Solar Taupunkt Windchill Windben Empfang
28.11.2022 08:55 2,6 C 90 % 0,0 l/m 12,1 km/h (2 Bft) S 189 0 min 0 min 0,000 mm 0,0 UV-I 16 W/m 1,1 C -0,7 C 16,1 km/h (3 Bft) 100,00 %
28.11.2022 08:54 2,6 C 90 % 0,0 l/m 11,0 km/h (2 Bft) S-SO 167 0 min 0 min 0,000 mm 0,0 UV-I 16 W/m 1,1 C -0,4 C 16,1 km/h (3 Bft) 100,00 %
28.11.2022 08:53 2,7 C 90 % 0,0 l/m 12,2 km/h (2 Bft) S 169 0 min 0 min 0,000 mm 0,0 UV-I 16 W/m 1,2 C -0,7 C 16,1 km/h (3 Bft) 100,00 %
28.11.2022 08:52 2,6 C 90 % 0,0 l/m 7,8 km/h (2 Bft) S 172 0 min 0 min 0,000 mm 0,0 UV-I 16 W/m 1,1 C 0,4 C 12,9 km/h (3 Bft) 100,00 %
28.11.2022 08:51 2,7 C 90 % 0,0 l/m 9,7 km/h (2 Bft) S 177 0 min 0 min 0,000 mm 0,0 UV-I 14 W/m 1,2 C -0,1 C 12,9 km/h (3 Bft) 100,00 %
28.11.2022 08:50 2,7 C 90 % 0,0 l/m 11,9 km/h (2 Bft) S-SO 155 0 min 0 min 0,000 mm 0,0 UV-I 14 W/m 1,2 C -0,5 C 14,5 km/h (3 Bft) 100,00 %
28.11.2022 08:49 2,7 C 90 % 0,0 l/m 8,3 km/h (2 Bft) S-SO 163 0 min 0 min 0,000 mm 0,0 UV-I 14 W/m 1,2 C 0,3 C 11,3 km/h (2 Bft) 100,00 %
28.11.2022 08:48 2,7 C 90 % 0,0 l/m 10,8 km/h (2 Bft) S 172 0 min 0 min 0,000 mm 0,0 UV-I 14 W/m 1,2 C -0,3 C 16,1 km/h (3 Bft) 95,83 %
28.11.2022 08:47 2,7 C 90 % 0,0 l/m 11,3 km/h (2 Bft) S 169 0 min 0 min 0,000 mm 0,0 UV-I 14 W/m 1,2 C -0,4 C 16,1 km/h (3 Bft) 95,65 %
28.11.2022 08:46 2,7 C 90 % 0,0 l/m 11,8 km/h (2 Bft) S-SO 165 0 min 0 min 0,000 mm 0,0 UV-I 14 W/m 1,2 C -0,5 C 16,1 km/h (3 Bft) 100,00 %
28.11.2022 08:45 2,7 C 90 % 0,0 l/m 7,4 km/h (2 Bft) S 171 0 min 0 min 0,000 mm 0,0 UV-I 14 W/m 1,2 C 0,6 C 11,3 km/h (2 Bft) 100,00 %
28.11.2022 08:44 2,7 C 90 % 0,0 l/m 7,6 km/h (2 Bft) S 188 0 min 0 min 0,000 mm 0,0 UV-I 13 W/m 1,2 C 0,6 C 11,3 km/h (2 Bft) 96,00 %
28.11.2022 08:43 2,7 C 90 % 0,0 l/m 7,8 km/h (2 Bft) S-SO 168 0 min 0 min 0,000 mm 0,0 UV-I 12 W/m 1,2 C 0,5 C 14,5 km/h (3 Bft) 100,00 %
28.11.2022 08:42 2,7 C 90 % 0,0 l/m 7,8 km/h (2 Bft) S-SW 205 0 min 0 min 0,000 mm 0,0 UV-I 12 W/m 1,2 C 0,5 C 9,7 km/h (2 Bft) 96,15 %
28.11.2022 08:41 2,7 C 90 % 0,0 l/m 6,8 km/h (2 Bft) S-SW 193 0 min 0 min 0,000 mm 0,0 UV-I 12 W/m 1,2 C 0,8 C 9,7 km/h (2 Bft) 100,00 %
28.11.2022 08:40 2,7 C 90 % 0,0 l/m 7,6 km/h (2 Bft) S-SW 197 0 min 0 min 0,000 mm 0,0 UV-I 12 W/m 1,2 C 0,6 C 11,3 km/h (2 Bft) 95,65 %
28.11.2022 08:39 2,7 C 90 % 0,0 l/m 4,9 km/h (1 Bft) S-SW 201 0 min 0 min 0,000 mm 0,0 UV-I 12 W/m 1,2 C 1,5 C 8,0 km/h (2 Bft) 100,00 %
28.11.2022 08:38 2,7 C 90 % 0,0 l/m 5,8 km/h (2 Bft) S-SW 205 0 min 0 min 0,000 mm 0,0 UV-I 11 W/m 1,2 C 1,2 C 8,0 km/h (2 Bft) 96,30 %
28.11.2022 08:37 2,7 C 90 % 0,0 l/m 9,2 km/h (2 Bft) S-SO 163 0 min 0 min 0,000 mm 0,0 UV-I 11 W/m 1,2 C 0,1 C 14,5 km/h (3 Bft) 90,91 %
28.11.2022 08:36 2,7 C 90 % 0,0 l/m 7,3 km/h (2 Bft) S 178 0 min 0 min 0,000 mm 0,0 UV-I 11 W/m 1,2 C 0,6 C 11,3 km/h (2 Bft) 96,30 %
28.11.2022 08:35 2,7 C 90 % 0,0 l/m 6,5 km/h (2 Bft) S 188 0 min 0 min 0,000 mm 0,0 UV-I 11 W/m 1,2 C 0,9 C 8,0 km/h (2 Bft) 95,83 %
28.11.2022 08:34 2,7 C 90 % 0,0 l/m 5,7 km/h (2 Bft) S-SW 207 0 min 0 min 0,000 mm 0,0 UV-I 9 W/m 1,2 C 1,2 C 8,0 km/h (2 Bft) 95,83 %
28.11.2022 08:33 2,7 C 90 % 0,0 l/m 7,1 km/h (2 Bft) S 181 0 min 0 min 0,000 mm 0,0 UV-I 9 W/m 1,2 C 0,7 C 9,7 km/h (2 Bft) 86,96 %
28.11.2022 08:32 2,7 C 90 % 0,0 l/m 4,9 km/h (1 Bft) S 188 0 min 0 min 0,000 mm 0,0 UV-I 9 W/m 1,2 C 1,5 C 6,4 km/h (2 Bft) 95,65 %
28.11.2022 08:31 2,7 C 90 % 0,0 l/m 5,4 km/h (2 Bft) S 188 0 min 0 min 0,000 mm 0,0 UV-I 9 W/m 1,2 C 1,3 C 8,0 km/h (2 Bft) 95,83 %
28.11.2022 08:30 2,7 C 90 % 0,0 l/m 6,2 km/h (2 Bft) S-SW 211 0 min 0 min 0,000 mm 0,0 UV-I 7 W/m 1,2 C 1,0 C 8,0 km/h (2 Bft) 95,65 %
28.11.2022 08:29 2,7 C 90 % 0,0 l/m 7,0 km/h (2 Bft) S 187 0 min 0 min 0,000 mm 0,0 UV-I 7 W/m 1,2 C 0,7 C 11,3 km/h (2 Bft) 95,83 %
28.11.2022 08:28 2,7 C 90 % 0,0 l/m 8,0 km/h (2 Bft) SO 138 0 min 0 min 0,000 mm 0,0 UV-I 7 W/m 1,2 C 0,4 C 12,9 km/h (3 Bft) 95,65 %
28.11.2022 08:27 2,7 C 90 % 0,0 l/m 7,1 km/h (2 Bft) S 171 0 min 0 min 0,000 mm 0,0 UV-I 7 W/m 1,2 C 0,7 C 9,7 km/h (2 Bft) 95,65 %
28.11.2022 08:26 2,7 C 90 % 0,0 l/m 7,6 km/h (2 Bft) S 189 0 min 0 min 0,000 mm 0,0 UV-I 7 W/m 1,2 C 0,6 C 11,3 km/h (2 Bft) 92,31 %
28.11.2022 08:25 2,7 C 90 % 0,0 l/m 13,2 km/h (3 Bft) S-SO 159 0 min 0 min 0,000 mm 0,0 UV-I 7 W/m 1,2 C -0,8 C 17,7 km/h (3 Bft) 100,00 %
28.11.2022 08:24 2,7 C 90 % 0,0 l/m 13,2 km/h (3 Bft) S-SO 164 0 min 0 min 0,000 mm 0,0 UV-I 7 W/m 1,2 C -0,8 C 17,7 km/h (3 Bft) 91,67 %
28.11.2022 08:23 2,7 C 90 % 0,0 l/m 9,1 km/h (2 Bft) S-SW 192 0 min 0 min 0,000 mm 0,0 UV-I 5 W/m 1,2 C 0,1 C 14,5 km/h (3 Bft) 95,83 %
28.11.2022 08:22 2,7 C 90 % 0,0 l/m 11,5 km/h (2 Bft) S 176 0 min 0 min 0,000 mm 0,0 UV-I 5 W/m 1,2 C -0,4 C 16,1 km/h (3 Bft) 100,00 %
28.11.2022 08:21 2,7 C 90 % 0,0 l/m 8,7 km/h (2 Bft) S-SO 159 0 min 0 min 0,000 mm 0,0 UV-I 5 W/m 1,2 C 0,2 C 11,3 km/h (2 Bft) 100,00 %
28.11.2022 08:20 2,7 C 90 % 0,0 l/m 14,4 km/h (3 Bft) S 169 0 min 0 min 0,000 mm 0,0 UV-I 5 W/m 1,2 C -1,0 C 19,3 km/h (3 Bft) 100,00 %
28.11.2022 08:19 2,7 C 90 % 0,0 l/m 12,8 km/h (3 Bft) S 172 0 min 0 min 0,000 mm 0,0 UV-I 5 W/m 1,2 C -0,7 C 17,7 km/h (3 Bft) 100,00 %
28.11.2022 08:18 2,7 C 90 % 0,0 l/m 11,5 km/h (2 Bft) S 169 0 min 0 min 0,000 mm 0,0 UV-I 4 W/m 1,2 C -0,4 C 17,7 km/h (3 Bft) 100,00 %
28.11.2022 08:17 2,7 C 90 % 0,0 l/m 12,0 km/h (2 Bft) S-SW 193 0 min 0 min 0,000 mm 0,0 UV-I 0 W/m 1,2 C -0,5 C 16,1 km/h (3 Bft) 100,00 %
28.11.2022 08:16 2,7 C 90 % 0,0 l/m 11,7 km/h (2 Bft) S-SO 167 0 min 0 min 0,000 mm 0,0 UV-I 0 W/m 1,2 C -0,5 C 14,5 km/h (3 Bft) 100,00 %
28.11.2022 08:15 2,7 C 90 % 0,0 l/m 13,5 km/h (3 Bft) S 171 0 min 0 min 0,000 mm 0,0 UV-I 0 W/m 1,2 C -0,8 C 17,7 km/h (3 Bft) 100,00 %
28.11.2022 08:14 2,7 C 90 % 0,0 l/m 9,9 km/h (2 Bft) S 186 0 min 0 min 0,000 mm 0,0 UV-I 0 W/m 1,2 C -0,1 C 14,5 km/h (3 Bft) 100,00 %
28.11.2022 08:13 2,7 C 90 % 0,0 l/m 10,6 km/h (2 Bft) S 179 0 min 0 min 0,000 mm 0,0 UV-I 0 W/m 1,2 C -0,2 C 12,9 km/h (3 Bft) 95,65 %
28.11.2022 08:12 2,7 C 90 % 0,0 l/m 14,4 km/h (3 Bft) S-SO 163 0 min 0 min 0,000 mm 0,0 UV-I 0 W/m 1,2 C -1,0 C 20,9 km/h (4 Bft) 100,00 %
28.11.2022 08:11 2,7 C 90 % 0,0 l/m 12,2 km/h (2 Bft) S-SO 154 0 min 0 min 0,000 mm 0,0 UV-I 0 W/m 1,2 C -0,6 C 17,7 km/h (3 Bft) 100,00 %
28.11.2022 08:10 2,7 C 90 % 0,0 l/m 9,7 km/h (2 Bft) SO 139 0 min 0 min 0,000 mm 0,0 UV-I 0 W/m 1,2 C -0,0 C 12,9 km/h (3 Bft) 100,00 %
28.11.2022 08:09 2,7 C 90 % 0,0 l/m 9,4 km/h (2 Bft) S 189 0 min 0 min 0,000 mm 0,0 UV-I 0 W/m 1,2 C 0,1 C 14,5 km/h (3 Bft) 100,00 %
28.11.2022 08:08 2,7 C 90 % 0,0 l/m 10,8 km/h (2 Bft) S 182 0 min 0 min 0,000 mm 0,0 UV-I 0 W/m 1,2 C -0,3 C 16,1 km/h (3 Bft) 100,00 %
28.11.2022 08:07 2,7 C 90 % 0,0 l/m 8,6 km/h (2 Bft) S-SO 168 0 min 0 min 0,000 mm 0,0 UV-I 0 W/m 1,2 C 0,3 C 16,1 km/h (3 Bft) 100,00 %
28.11.2022 08:06 2,7 C 90 % 0,0 l/m 8,4 km/h (2 Bft) S 177 0 min 0 min 0,000 mm 0,0 UV-I 0 W/m 1,2 C 0,3 C 12,9 km/h (3 Bft) 100,00 %
28.11.2022 08:05 2,7 C 90 % 0,0 l/m 12,2 km/h (2 Bft) SO 141 0 min 0 min 0,000 mm 0,0 UV-I 0 W/m 1,2 C -0,6 C 17,7 km/h (3 Bft) 100,00 %
28.11.2022 08:04 2,7 C 90 % 0,0 l/m 13,3 km/h (3 Bft) S-SO 155 0 min 0 min 0,000 mm 0,0 UV-I 0 W/m 1,2 C -0,8 C 24,1 km/h (4 Bft) 100,00 %
28.11.2022 08:03 2,7 C 90 % 0,0 l/m 10,9 km/h (2 Bft) SO 144 0 min 0 min 0,000 mm 0,0 UV-I 0 W/m 1,2 C -0,3 C 16,1 km/h (3 Bft) 100,00 %
28.11.2022 08:01 2,7 C 90 % 0,0 l/m 9,3 km/h (2 Bft) S 169 0 min 0 min 0,000 mm 0,0 UV-I 0 W/m 1,2 C 0,1 C 12,9 km/h (3 Bft) 100,00 %
28.11.2022 08:00 2,7 C 90 % 0,0 l/m 10,5 km/h (2 Bft) S 181 0 min 0 min 0,000 mm 0,0 UV-I 0 W/m 1,2 C -0,2 C 16,1 km/h (3 Bft) 100,00 %
28.11.2022 07:59 2,7 C 90 % 0,0 l/m 11,0 km/h (2 Bft) S-SO 149 0 min 0 min 0,000 mm 0,0 UV-I 0 W/m 1,2 C -0,3 C 16,1 km/h (3 Bft) 100,00 %
28.11.2022 07:58 2,7 C 90 % 0,0 l/m 11,3 km/h (2 Bft) S-SO 167 0 min 0 min 0,000 mm 0,0 UV-I 0 W/m 1,2 C -0,4 C 16,1 km/h (3 Bft) 100,00 %
28.11.2022 07:57 2,7 C 90 % 0,0 l/m 10,0 km/h (2 Bft) S 181 0 min 0 min 0,000 mm 0,0 UV-I 0 W/m 1,2 C -0,1 C 12,9 km/h (3 Bft) 96,97 %
28.11.2022 07:56 2,7 C 90 % 0,0 l/m 7,7 km/h (2 Bft) S-SO 161 0 min 0 min 0,000 mm 0,0 UV-I 0 W/m 1,2 C 0,5 C 11,3 km/h (2 Bft) 100,00 %
28.11.2022 07:55 2,7 C 90 % 0,0 l/m 10,1 km/h (2 Bft) SO 146 0 min 0 min 0,000 mm 0,0 UV-I 0 W/m 1,2 C -0,1 C 12,9 km/h (3 Bft) 96,67 %
28.11.2022 07:54 2,7 C 90 % 0,0 l/m 9,3 km/h (2 Bft) S-SO 150 0 min 0 min 0,000 mm 0,0 UV-I 0 W/m 1,2 C 0,1 C 14,5 km/h (3 Bft) 100,00 %
28.11.2022 07:53 2,7 C 90 % 0,0 l/m 6,3 km/h (2 Bft) S 176 0 min 0 min 0,000 mm 0,0 UV-I 0 W/m 1,2 C 1,0 C 8,0 km/h (2 Bft) 100,00 %
28.11.2022 07:52 2,7 C 90 % 0,0 l/m 8,4 km/h (2 Bft) S-SO 147 0 min 0 min 0,000 mm 0,0 UV-I 0 W/m 1,2 C 0,3 C 14,5 km/h (3 Bft) 100,00 %
28.11.2022 07:51 2,7 C 90 % 0,0 l/m 9,6 km/h (2 Bft) S-SO 155 0 min 0 min 0,000 mm 0,0 UV-I 0 W/m 1,2 C 0,0 C 14,5 km/h (3 Bft) 100,00 %
28.11.2022 07:50 2,7 C 90 % 0,0 l/m 11,9 km/h (2 Bft) S-SO 167 0 min 0 min 0,000 mm 0,0 UV-I 0 W/m 1,2 C -0,5 C 16,1 km/h (3 Bft) 100,00 %
28.11.2022 07:49 2,7 C 90 % 0,0 l/m 8,5 km/h (2 Bft) SO 144 0 min 0 min 0,000 mm 0,0 UV-I 0 W/m 1,2 C 0,3 C 17,7 km/h (3 Bft) 100,00 %
28.11.2022 07:48 2,7 C 90 % 0,0 l/m 6,8 km/h (2 Bft) S-SO 153 0 min 0 min 0,000 mm 0,0 UV-I 0 W/m 1,2 C 0,8 C 9,7 km/h (2 Bft) 100,00 %
28.11.2022 07:47 2,7 C 90 % 0,0 l/m 8,9 km/h (2 Bft) S-SO 163 0 min 0 min 0,000 mm 0,0 UV-I 0 W/m 1,2 C 0,2 C 16,1 km/h (3 Bft) 100,00 %
28.11.2022 07:46 2,7 C 90 % 0,0 l/m 10,5 km/h (2 Bft) SO 141 0 min 0 min 0,000 mm 0,0 UV-I 0 W/m 1,2 C -0,2 C 17,7 km/h (3 Bft) 100,00 %
28.11.2022 07:45 2,7 C 90 % 0,0 l/m 9,7 km/h (2 Bft) S-SO 161 0 min 0 min 0,000 mm 0,0 UV-I 0 W/m 1,2 C -0,0 C 14,5 km/h (3 Bft) 100,00 %
28.11.2022 07:44 2,7 C 90 % 0,0 l/m 7,8 km/h (2 Bft) S-SO 163 0 min 0 min 0,000 mm 0,0 UV-I 0 W/m 1,2 C 0,5 C 11,3 km/h (2 Bft) 94,12 %
28.11.2022 07:43 2,8 C 90 % 0,0 l/m 10,0 km/h (2 Bft) S-SO 155 0 min 0 min 0,000 mm 0,0 UV-I 0 W/m 1,3 C -0,1 C 14,5 km/h (3 Bft) 100,00 %
28.11.2022 07:41 2,8 C 90 % 0,0 l/m 10,3 km/h (2 Bft) SO 146 0 min 0 min 0,000 mm 0,0 UV-I 0 W/m 1,3 C -0,2 C 12,9 km/h (3 Bft) 100,00 %
28.11.2022 07:40 2,7 C 90 % 0,0 l/m 9,8 km/h (2 Bft) S 178 0 min 0 min 0,000 mm 0,0 UV-I 0 W/m 1,2 C -0,0 C 16,1 km/h (3 Bft) 100,00 %
28.11.2022 07:39 2,8 C 90 % 0,0 l/m 9,5 km/h (2 Bft) S 169 0 min 0 min 0,000 mm 0,0 UV-I 0 W/m 1,3 C 0,0 C 12,9 km/h (3 Bft) 96,15 %
28.11.2022 07:38 2,8 C 90 % 0,0 l/m 7,6 km/h (2 Bft) S-SO 153 0 min 0 min 0,000 mm 0,0 UV-I 0 W/m 1,3 C 0,7 C 9,7 km/h (2 Bft) 100,00 %
28.11.2022 07:37 2,8 C 90 % 0,0 l/m 8,5 km/h (2 Bft) S-SO 156 0 min 0 min 0,000 mm 0,0 UV-I 0 W/m 1,3 C 0,4 C 11,3 km/h (2 Bft) 96,30 %
28.11.2022 07:36 2,8 C 90 % 0,0 l/m 5,3 km/h (1 Bft) S 169 0 min 0 min 0,000 mm 0,0 UV-I 0 W/m 1,3 C 1,5 C 8,0 km/h (2 Bft) 93,10 %
28.11.2022 07:35 2,8 C 90 % 0,0 l/m 6,1 km/h (2 Bft) S-SO 167 0 min 0 min 0,000 mm 0,0 UV-I 0 W/m 1,3 C 1,0 C 9,7 km/h (2 Bft) 100,00 %
28.11.2022 07:34 2,8 C 90 % 0,0 l/m 8,0 km/h (2 Bft) S 191 0 min 0 min 0,000 mm 0,0 UV-I 0 W/m 1,3 C 0,6 C 9,7 km/h (2 Bft) 92,59 %
28.11.2022 07:33 2,8 C 90 % 0,0 l/m 9,9 km/h (2 Bft) S 170 0 min 0 min 0,000 mm 0,0 UV-I 0 W/m 1,3 C 0,1 C 14,5 km/h (3 Bft) 100,00 %
28.11.2022 07:32 2,8 C 90 % 0,0 l/m 5,6 km/h (2 Bft) S-SO 151 0 min 0 min 0,000 mm 0,0 UV-I 0 W/m 1,3 C 1,3 C 8,0 km/h (2 Bft) 92,86 %
28.11.2022 07:31 2,8 C 90 % 0,0 l/m 3,6 km/h (1 Bft) S-SO 153 0 min 0 min 0,000 mm 0,0 UV-I 0 W/m 1,3 C 2,8 C 6,4 km/h (2 Bft) 96,30 %
28.11.2022 07:30 2,8 C 90 % 0,0 l/m 8,6 km/h (2 Bft) S-SO 165 0 min 0 min 0,000 mm 0,0 UV-I 0 W/m 1,3 C 0,4 C 11,3 km/h (2 Bft) 92,31 %
28.11.2022 07:29 2,8 C 90 % 0,0 l/m 4,7 km/h (1 Bft) S 187 0 min 0 min 0,000 mm 0,0 UV-I 0 W/m 1,3 C 1,7 C 12,9 km/h (3 Bft) 100,00 %
28.11.2022 07:28 2,8 C 90 % 0,0 l/m 9,0 km/h (2 Bft) S-SO 150 0 min 0 min 0,000 mm 0,0 UV-I 0 W/m 1,3 C 0,3 C 14,5 km/h (3 Bft) 83,33 %
28.11.2022 07:27 2,8 C 90 % 0,0 l/m 9,0 km/h (2 Bft) S-SO 166 0 min 0 min 0,000 mm 0,0 UV-I 0 W/m 1,3 C 0,3 C 14,5 km/h (3 Bft) 100,00 %
28.11.2022 07:26 2,8 C 90 % 0,0 l/m 7,1 km/h (2 Bft) SO 142 0 min 0 min 0,000 mm 0,0 UV-I 0 W/m 1,3 C 0,8 C 12,9 km/h (3 Bft) 92,86 %
28.11.2022 07:25 2,8 C 90 % 0,0 l/m 5,9 km/h (2 Bft) S-SO 163 0 min 0 min 0,000 mm 0,0 UV-I 0 W/m 1,3 C 1,2 C 8,0 km/h (2 Bft) 92,86 %
28.11.2022 07:24 2,8 C 90 % 0,0 l/m 8,0 km/h (2 Bft) S-SO 168 0 min 0 min 0,000 mm 0,0 UV-I 0 W/m 1,3 C 0,4 C 12,9 km/h (3 Bft) 92,59 %
28.11.2022 07:23 2,8 C 90 % 0,0 l/m 7,0 km/h (2 Bft) S-SO 163 0 min 0 min 0,000 mm 0,0 UV-I 0 W/m 1,3 C 0,7 C 12,9 km/h (3 Bft) 98,31 %
28.11.2022 07:21 2,7 C 90 % 0,0 l/m 11,4 km/h (2 Bft) SO 139 0 min 0 min 0,000 mm 0,0 UV-I 0 W/m 1,2 C -0,4 C 14,5 km/h (3 Bft) 100,00 %
28.11.2022 07:20 2,7 C 90 % 0,0 l/m 8,8 km/h (2 Bft) S 180 0 min 0 min 0,000 mm 0,0 UV-I 0 W/m 1,2 C 0,2 C 12,9 km/h (3 Bft) 100,00 %
28.11.2022 07:19 2,7 C 90 % 0,0 l/m 6,8 km/h (2 Bft) S-SO 159 0 min 0 min 0,000 mm 0,0 UV-I 0 W/m 1,2 C 0,8 C 9,7 km/h (2 Bft) 96,55 %
28.11.2022 07:18 2,7 C 90 % 0,0 l/m 7,9 km/h (2 Bft) S-SO 157 0 min 0 min 0,000 mm 0,0 UV-I 0 W/m 1,2 C 0,5 C 11,3 km/h (2 Bft) 100,00 %
28.11.2022 07:17 2,7 C 90 % 0,0 l/m 7,4 km/h (2 Bft) S 176 0 min 0 min 0,000 mm 0,0 UV-I 0 W/m 1,2 C 0,6 C 9,7 km/h (2 Bft) 96,30 %
28.11.2022 07:16 2,7 C 90 % 0,0 l/m 7,2 km/h (2 Bft) S-SO 156 0 min 0 min 0,000 mm 0,0 UV-I 0 W/m 1,2 C 0,7 C 9,7 km/h (2 Bft) 100,00 %
28.11.2022 07:15 2,7 C 90 % 0,0 l/m 10,0 km/h (2 Bft) SO 144 0 min 0 min 0,000 mm 0,0 UV-I 0 W/m 1,2 C -0,1 C 20,9 km/h (4 Bft) 92,31 %
28.11.2022 07:14 2,7 C 90 % 0,0 l/m 7,6 km/h (2 Bft) S-SW 209 0 min 0 min 0,000 mm 0,0 UV-I 0 W/m 1,2 C 0,6 C 12,9 km/h (3 Bft) 96,67 %
28.11.2022 07:13 2,7 C 90 % 0,0 l/m 9,9 km/h (2 Bft) S-SO 163 0 min 0 min 0,000 mm 0,0 UV-I 0 W/m 1,2 C -0,1 C 12,9 km/h (3 Bft) 100,00 %
28.11.2022 07:12 2,7 C 90 % 0,0 l/m 9,5 km/h (2 Bft) S-SO 164 0 min 0 min 0,000 mm 0,0 UV-I 0 W/m 1,2 C 0,0 C 14,5 km/h (3 Bft) 95,83 %
28.11.2022 07:11 2,7 C 90 % 0,0 l/m 5,2 km/h (1 Bft) S 180 0 min 0 min 0,000 mm 0,0 UV-I 0 W/m 1,2 C 1,4 C 9,7 km/h (2 Bft) 100,00 %
28.11.2022 07:10 2,7 C 90 % 0,0 l/m 5,4 km/h (2 Bft) S-SW 193 0 min 0 min 0,000 mm 0,0 UV-I 0 W/m 1,2 C 1,3 C 8,0 km/h (2 Bft) 93,10 %
28.11.2022 07:09 2,7 C 90 % 0,0 l/m 8,9 km/h (2 Bft) S-SO 162 0 min 0 min 0,000 mm 0,0 UV-I 0 W/m 1,2 C 0,2 C 12,9 km/h (3 Bft) 100,00 %
28.11.2022 07:07 2,7 C 90 % 0,0 l/m 11,8 km/h (2 Bft) S 184 0 min 0 min 0,000 mm 0,0 UV-I 0 W/m 1,2 C -0,5 C 16,1 km/h (3 Bft) 99,42 %
28.11.2022 07:06 2,7 C 90 % 0,0 l/m 11,1 km/h (2 Bft) SO 140 0 min 0 min 0,000 mm 0,0 UV-I 0 W/m 1,2 C -0,3 C 14,5 km/h (3 Bft) 100,00 %
28.11.2022 07:05 2,8 C 90 % 0,0 l/m 5,9 km/h (2 Bft) S 184 0 min 0 min 0,000 mm 0,0 UV-I 0 W/m 1,3 C 1,1 C 11,3 km/h (2 Bft) 100,00 %
28.11.2022 07:04 2,8 C 90 % 0,0 l/m 4,2 km/h (1 Bft) S 180 0 min 0 min 0,000 mm 0,0 UV-I 0 W/m 1,3 C 2,8 C 6,4 km/h (2 Bft) 100,00 %
28.11.2022 07:03 2,8 C 90 % 0,0 l/m 5,6 km/h (2 Bft) S 178 0 min 0 min 0,000 mm 0,0 UV-I 0 W/m 1,3 C 1,3 C 9,7 km/h (2 Bft) 97,87 %
28.11.2022 07:01 2,8 C 90 % 0,0 l/m 5,1 km/h (1 Bft) S 190 0 min 0 min 0,000 mm 0,0 UV-I 0 W/m 1,3 C 1,5 C 9,7 km/h (2 Bft) 95,65 %
28.11.2022 07:00 2,8 C 90 % 0,0 l/m 4,6 km/h (1 Bft) S-SW 197 0 min 0 min 0,000 mm 0,0 UV-I 0 W/m 1,3 C 1,8 C 6,4 km/h (2 Bft) 100,00 %
28.11.2022 06:59 2,8 C 90 % 0,0 l/m 4,5 km/h (1 Bft) S-SW 197 0 min 0 min 0,000 mm 0,0 UV-I 0 W/m 1,3 C 2,8 C 6,4 km/h (2 Bft) 100,00 %
28.11.2022 06:58 2,8 C 90 % 0,0 l/m 4,9 km/h (1 Bft) S 182 0 min 0 min 0,000 mm 0,0 UV-I 0 W/m 1,3 C 1,6 C 8,0 km/h (2 Bft) 100,00 %
28.11.2022 06:57 2,8 C 90 % 0,0 l/m 6,4 km/h (2 Bft) S-SO 158 0 min 0 min 0,000 mm 0,0 UV-I 0 W/m 1,3 C 1,1 C 11,3 km/h (2 Bft) 100,00 %
28.11.2022 06:56 2,8 C 90 % 0,0 l/m 4,6 km/h (1 Bft) S-SW 202 0 min 0 min 0,000 mm 0,0 UV-I 0 W/m 1,3 C 1,8 C 6,4 km/h (2 Bft) 100,00 %
28.11.2022 06:43 2,8 C 90 % 0,0 l/m 6,4 km/h (2 Bft) S 180 0 min 0 min 0,000 mm 0,0 UV-I 0 W/m 1,3 C 1,1 C 9,7 km/h (2 Bft) 100,00 %
28.11.2022 06:42 2,8 C 90 % 0,0 l/m 4,8 km/h (1 Bft) S 180 0 min 0 min 0,000 mm 0,0 UV-I 0 W/m 1,3 C 1,7 C 8,0 km/h (2 Bft) 100,00 %
28.11.2022 06:41 2,8 C 90 % 0,0 l/m 6,4 km/h (2 Bft) S-SO 157 0 min 0 min 0,000 mm 0,0 UV-I 0 W/m 1,3 C 1,1 C 9,7 km/h (2 Bft) 100,00 %
28.11.2022 06:40 2,8 C 90 % 0,0 l/m 8,0 km/h (2 Bft) S 180 0 min 0 min 0,000 mm 0,0 UV-I 0 W/m 1,3 C 0,6 C 11,3 km/h (2 Bft) 100,00 %
28.11.2022 06:39 2,8 C 90 % 0,0 l/m 9,7 km/h (2 Bft) S-SO 157 0 min 0 min 0,000 mm 0,0 UV-I 0 W/m 1,3 C 0,1 C 12,9 km/h (3 Bft) 100,00 %
28.11.2022 06:38 2,8 C 90 % 0,0 l/m 8,0 km/h (2 Bft) S 180 0 min 0 min 0,000 mm 0,0 UV-I 0 W/m 1,3 C 0,6 C 12,9 km/h (3 Bft) 100,00 %
28.11.2022 06:37 2,9 C 90 % 0,0 l/m 8,0 km/h (2 Bft) S 180 0 min 0 min 0,000 mm 0,0 UV-I 0 W/m 1,4 C 0,6 C 11,3 km/h (2 Bft) 91,30 %
28.11.2022 06:36 2,9 C 90 % 0,0 l/m 9,7 km/h (2 Bft) S 180 0 min 0 min 0,000 mm 0,0 UV-I 0 W/m 1,4 C 0,1 C 14,5 km/h (3 Bft) 100,00 %
28.11.2022 06:35 2,9 C 89 % 0,0 l/m 9,7 km/h (2 Bft) S-SO 157 0 min 0 min 0,000 mm 0,0 UV-I 0 W/m 1,3 C 0,1 C 16,1 km/h (3 Bft) 100,00 %
28.11.2022 06:34 2,9 C 90 % 0,0 l/m 4,8 km/h (1 Bft) S 180 0 min 0 min 0,000 mm 0,0 UV-I 0 W/m 1,4 C 1,8 C 9,7 km/h (2 Bft) 100,00 %
28.11.2022 06:33 2,9 C 90 % 0,0 l/m 8,0 km/h (2 Bft) S 180 0 min 0 min 0,000 mm 0,0 UV-I 0 W/m 1,4 C 0,6 C 9,7 km/h (2 Bft) 100,00 %
28.11.2022 06:32 2,9 C 89 % 0,0 l/m 6,4 km/h (2 Bft) S 180 0 min 0 min 0,000 mm 0,0 UV-I 0 W/m 1,3 C 1,2 C 11,3 km/h (2 Bft) 100,00 %
28.11.2022 06:31 2,9 C 90 % 0,0 l/m 8,0 km/h (2 Bft) S-SO 157 0 min 0 min 0,000 mm 0,0 UV-I 0 W/m 1,4 C 0,7 C 14,5 km/h (3 Bft) 95,65 %
28.11.2022 06:30 2,9 C 90 % 0,0 l/m 6,4 km/h (2 Bft) S-SO 157 0 min 0 min 0,000 mm 0,0 UV-I 0 W/m 1,4 C 1,2 C 11,3 km/h (2 Bft) 95,65 %
28.11.2022 06:29 2,9 C 90 % 0,0 l/m 9,7 km/h (2 Bft) S-SO 157 0 min 0 min 0,000 mm 0,0 UV-I 0 W/m 1,4 C 0,2 C 16,1 km/h (3 Bft) 100,00 %
28.11.2022 06:28 2,9 C 90 % 0,0 l/m 9,7 km/h (2 Bft) S-SO 157 0 min 0 min 0,000 mm 0,0 UV-I 0 W/m 1,4 C 0,2 C 14,5 km/h (3 Bft) 100,00 %
28.11.2022 06:27 2,9 C 90 % 0,0 l/m 11,3 km/h (2 Bft) S-SO 157 0 min 0 min 0,000 mm 0,0 UV-I 0 W/m 1,4 C -0,1 C 16,1 km/h (3 Bft) 100,00 %
28.11.2022 06:26 2,9 C 90 % 0,0 l/m 8,0 km/h (2 Bft) S-SO 157 0 min 0 min 0,000 mm 0,0 UV-I 0 W/m 1,4 C 0,6 C 14,5 km/h (3 Bft) 100,00 %
28.11.2022 06:25 2,9 C 90 % 0,0 l/m 11,3 km/h (2 Bft) S-SO 157 0 min 0 min 0,000 mm 0,0 UV-I 0 W/m 1,4 C -0,1 C 16,1 km/h (3 Bft) 95,65 %
28.11.2022 06:24 2,9 C 90 % 0,0 l/m 12,9 km/h (3 Bft) S-SO 157 0 min 0 min 0,000 mm 0,0 UV-I 0 W/m 1,4 C -0,5 C 19,3 km/h (3 Bft) 95,65 %
28.11.2022 06:23 2,9 C 90 % 0,0 l/m 11,3 km/h (2 Bft) S-SO 157 0 min 0 min 0,000 mm 0,0 UV-I 0 W/m 1,4 C -0,1 C 16,1 km/h (3 Bft) 100,00 %
28.11.2022 06:22 2,9 C 90 % 0,0 l/m 12,9 km/h (3 Bft) S 180 0 min 0 min 0,000 mm 0,0 UV-I 0 W/m 1,4 C -0,5 C 17,7 km/h (3 Bft) 91,30 %
28.11.2022 06:21 2,9 C 90 % 0,0 l/m 11,3 km/h (2 Bft) S-SO 157 0 min 0 min 0,000 mm 0,0 UV-I 0 W/m 1,4 C -0,1 C 17,7 km/h (3 Bft) 100,00 %
28.11.2022 06:20 2,9 C 90 % 0,0 l/m 11,3 km/h (2 Bft) S-SO 157 0 min 0 min 0,000 mm 0,0 UV-I 0 W/m 1,4 C -0,1 C 16,1 km/h (3 Bft) 95,65 %
28.11.2022 06:19 2,9 C 90 % 0,0 l/m 12,9 km/h (3 Bft) S-SO 157 0 min 0 min 0,000 mm 0,0 UV-I 0 W/m 1,4 C -0,6 C 17,7 km/h (3 Bft) 100,00 %
28.11.2022 06:18 2,9 C 90 % 0,0 l/m 12,9 km/h (3 Bft) S-SO 157 0 min 0 min 0,000 mm 0,0 UV-I 0 W/m 1,4 C -0,5 C 17,7 km/h (3 Bft) 95,65 %
28.11.2022 06:17 2,9 C 90 % 0,0 l/m 11,3 km/h (2 Bft) S-SO 157 0 min 0 min 0,000 mm 0,0 UV-I 0 W/m 1,4 C -0,1 C 14,5 km/h (3 Bft) 100,00 %
28.11.2022 06:16 2,9 C 90 % 0,0 l/m 11,3 km/h (2 Bft) S-SO 157 0 min 0 min 0,000 mm 0,0 UV-I 0 W/m 1,4 C -0,3 C 16,1 km/h (3 Bft) 95,65 %
28.11.2022 06:15 2,8 C 90 % 0,0 l/m 9,7 km/h (2 Bft) S-SO 157 0 min 0 min 0,000 mm 0,0 UV-I 0 W/m 1,3 C 0,1 C 14,5 km/h (3 Bft) 95,65 %
28.11.2022 06:14 2,8 C 90 % 0,0 l/m 12,9 km/h (3 Bft) S-SO 157 0 min 0 min 0,000 mm 0,0 UV-I 0 W/m 1,3 C -0,6 C 17,7 km/h (3 Bft) 100,00 %
28.11.2022 06:13 2,8 C 90 % 0,0 l/m 9,7 km/h (2 Bft) S-SO 157 0 min 0 min 0,000 mm 0,0 UV-I 0 W/m 1,3 C 0,1 C 17,7 km/h (3 Bft) 100,00 %
28.11.2022 06:12 2,8 C 90 % 0,0 l/m 11,3 km/h (2 Bft) S-SO 157 0 min 0 min 0,000 mm 0,0 UV-I 0 W/m 1,3 C -0,3 C 19,3 km/h (3 Bft) 100,00 %
28.11.2022 06:11 2,8 C 90 % 0,0 l/m 14,5 km/h (3 Bft) S-SO 157 0 min 0 min 0,000 mm 0,0 UV-I 0 W/m 1,3 C -0,9 C 20,9 km/h (4 Bft) 100,00 %
28.11.2022 06:10 2,8 C 90 % 0,0 l/m 12,9 km/h (3 Bft) S-SO 157 0 min 0 min 0,000 mm 0,0 UV-I 0 W/m 1,3 C -0,6 C 19,3 km/h (3 Bft) 100,00 %
28.11.2022 06:09 2,8 C 90 % 0,0 l/m 14,5 km/h (3 Bft) S-SO 157 0 min 0 min 0,000 mm 0,0 UV-I 0 W/m 1,3 C -0,9 C 20,9 km/h (4 Bft) 100,00 %
28.11.2022 06:08 2,8 C 90 % 0,0 l/m 12,9 km/h (3 Bft) S-SO 157 0 min 0 min 0,000 mm 0,0 UV-I 0 W/m 1,3 C -0,6 C 19,3 km/h (3 Bft) 95,65 %
28.11.2022 06:07 2,8 C 90 % 0,0 l/m 9,7 km/h (2 Bft) S 180 0 min 0 min 0,000 mm 0,0 UV-I 0 W/m 1,3 C 0,1 C 16,1 km/h (3 Bft) 100,00 %
28.11.2022 06:06 2,8 C 90 % 0,0 l/m 14,5 km/h (3 Bft) S-SO 157 0 min 0 min 0,000 mm 0,0 UV-I 0 W/m 1,3 C -0,9 C 17,7 km/h (3 Bft) 100,00 %
28.11.2022 06:05 2,8 C 90 % 0,0 l/m 11,3 km/h (2 Bft) S-SO 157 0 min 0 min 0,000 mm 0,0 UV-I 0 W/m 1,3 C -0,3 C 17,7 km/h (3 Bft) 100,00 %
28.11.2022 06:04 2,8 C 90 % 0,0 l/m 11,3 km/h (2 Bft) S-SO 157 0 min 0 min 0,000 mm 0,0 UV-I 0 W/m 1,3 C -0,3 C 19,3 km/h (3 Bft) 100,00 %
28.11.2022 06:03 2,8 C 90 % 0,0 l/m 8,0 km/h (2 Bft) SO 135 0 min 0 min 0,000 mm 0,0 UV-I 0 W/m 1,3 C 0,6 C 14,5 km/h (3 Bft) 100,00 %
28.11.2022 06:02 2,8 C 90 % 0,0 l/m 12,9 km/h (3 Bft) SO 135 0 min 0 min 0,000 mm 0,0 UV-I 0 W/m 1,3 C -0,6 C 17,7 km/h (3 Bft) 95,65 %
28.11.2022 06:01 2,8 C 90 % 0,0 l/m 14,5 km/h (3 Bft) S-SO 157 0 min 0 min 0,000 mm 0,0 UV-I 0 W/m 1,3 C -0,9 C 20,9 km/h (4 Bft) 95,65 %
28.11.2022 06:00 2,8 C 90 % 0,0 l/m 14,5 km/h (3 Bft) S-SO 157 0 min 0 min 0,000 mm 0,0 UV-I 0 W/m 1,3 C -0,9 C 19,3 km/h (3 Bft) 95,65 %
28.11.2022 05:59 2,8 C 90 % 0,0 l/m 8,0 km/h (2 Bft) SO 135 0 min 0 min 0,000 mm 0,0 UV-I 0 W/m 1,3 C 0,6 C 17,7 km/h (3 Bft) 100,00 %
28.11.2022 05:58 2,8 C 90 % 0,0 l/m 14,5 km/h (3 Bft) SO 135 0 min 0 min 0,000 mm 0,0 UV-I 0 W/m 1,3 C -0,9 C 20,9 km/h (4 Bft) 95,65 %
28.11.2022 05:57 2,8 C 90 % 0,0 l/m 8,0 km/h (2 Bft) S-SO 157 0 min 0 min 0,000 mm 0,0 UV-I 0 W/m 1,3 C 0,6 C 16,1 km/h (3 Bft) 100,00 %
28.11.2022 05:56 2,8 C 90 % 0,0 l/m 9,7 km/h (2 Bft) S-SO 157 0 min 0 min 0,000 mm 0,0 UV-I 0 W/m 1,3 C 0,1 C 14,5 km/h (3 Bft) 95,65 %
28.11.2022 05:55 2,8 C 90 % 0,0 l/m 11,3 km/h (2 Bft) S-SO 157 0 min 0 min 0,000 mm 0,0 UV-I 0 W/m 1,3 C -0,3 C 17,7 km/h (3 Bft) 95,65 %
28.11.2022 05:54 2,8 C 90 % 0,0 l/m 9,7 km/h (2 Bft) S-SO 157 0 min 0 min 0,000 mm 0,0 UV-I 0 W/m 1,3 C 0,1 C 17,7 km/h (3 Bft) 95,65 %
28.11.2022 05:53 2,8 C 90 % 0,0 l/m 12,9 km/h (3 Bft) S-SO 157 0 min 0 min 0,000 mm 0,0 UV-I 0 W/m 1,3 C -0,6 C 16,1 km/h (3 Bft) 95,65 %
28.11.2022 05:52 2,8 C 90 % 0,0 l/m 9,7 km/h (2 Bft) S-SO 157 0 min 0 min 0,000 mm 0,0 UV-I 0 W/m 1,3 C 0,1 C 14,5 km/h (3 Bft) 95,65 %
28.11.2022 05:51 2,8 C 90 % 0,0 l/m 9,7 km/h (2 Bft) S-SO 157 0 min 0 min 0,000 mm 0,0 UV-I 0 W/m 1,3 C 0,1 C 17,7 km/h (3 Bft) 95,65 %
28.11.2022 05:50 2,8 C 90 % 0,0 l/m 11,3 km/h (2 Bft) S-SO 157 0 min 0 min 0,000 mm 0,0 UV-I 0 W/m 1,3 C -0,3 C 16,1 km/h (3 Bft) 95,65 %
28.11.2022 05:49 2,8 C 90 % 0,0 l/m 12,9 km/h (3 Bft) S-SO 157 0 min 0 min 0,000 mm 0,0 UV-I 0 W/m 1,3 C -0,6 C 16,1 km/h (3 Bft) 95,65 %
28.11.2022 05:48 2,8 C 90 % 0,0 l/m 8,0 km/h (2 Bft) S-SO 157 0 min 0 min 0,000 mm 0,0 UV-I 0 W/m 1,3 C 0,6 C 11,3 km/h (2 Bft) 95,65 %
28.11.2022 05:47 2,8 C 90 % 0,0 l/m 12,9 km/h (3 Bft) S-SO 157 0 min 0 min 0,000 mm 0,0 UV-I 0 W/m 1,3 C -0,6 C 20,9 km/h (4 Bft) 91,30 %
28.11.2022 05:46 2,8 C 90 % 0,0 l/m 6,4 km/h (2 Bft) S 180 0 min 0 min 0,000 mm 0,0 UV-I 0 W/m 1,3 C 1,1 C 11,3 km/h (2 Bft) 91,30 %
28.11.2022 05:45 2,8 C 90 % 0,0 l/m 11,3 km/h (2 Bft) S-SO 157 0 min 0 min 0,000 mm 0,0 UV-I 0 W/m 1,3 C -0,3 C 14,5 km/h (3 Bft) 100,00 %
28.11.2022 05:44 2,8 C 90 % 0,0 l/m 8,0 km/h (2 Bft) SO 135 0 min 0 min 0,000 mm 0,0 UV-I 0 W/m 1,3 C 0,6 C 11,3 km/h (2 Bft) 91,30 %
28.11.2022 05:43 2,8 C 90 % 0,0 l/m 9,7 km/h (2 Bft) S-SO 157 0 min 0 min 0,000 mm 0,0 UV-I 0 W/m 1,3 C 0,1 C 17,7 km/h (3 Bft) 100,00 %
28.11.2022 05:42 2,8 C 90 % 0,0 l/m 9,7 km/h (2 Bft) S-SO 157 0 min 0 min 0,000 mm 0,0 UV-I 0 W/m 1,3 C 0,1 C 16,1 km/h (3 Bft) 95,65 %
28.11.2022 05:41 2,8 C 90 % 0,0 l/m 12,9 km/h (3 Bft) S-SO 157 0 min 0 min 0,000 mm 0,0 UV-I 0 W/m 1,3 C -0,6 C 20,9 km/h (4 Bft) 100,00 %
28.11.2022 05:40 2,8 C 90 % 0,0 l/m 11,3 km/h (2 Bft) S-SO 157 0 min 0 min 0,000 mm 0,0 UV-I 0 W/m 1,3 C -0,3 C 16,1 km/h (3 Bft) 91,30 %
28.11.2022 05:39 2,8 C 90 % 0,0 l/m 14,5 km/h (3 Bft) SO 135 0 min 0 min 0,000 mm 0,0 UV-I 0 W/m 1,3 C -0,9 C 17,7 km/h (3 Bft) 100,00 %
28.11.2022 05:38 2,8 C 90 % 0,0 l/m 8,0 km/h (2 Bft) SO 135 0 min 0 min 0,000 mm 0,0 UV-I 0 W/m 1,3 C 0,6 C 16,1 km/h (3 Bft) 95,65 %
28.11.2022 05:37 2,8 C 90 % 0,0 l/m 9,7 km/h (2 Bft) S-SO 157 0 min 0 min 0,000 mm 0,0 UV-I 0 W/m 1,3 C 0,1 C 12,9 km/h (3 Bft) 100,00 %
28.11.2022 05:36 2,8 C 90 % 0,0 l/m 11,3 km/h (2 Bft) S-SO 157 0 min 0 min 0,000 mm 0,0 UV-I 0 W/m 1,3 C -0,3 C 16,1 km/h (3 Bft) 100,00 %
28.11.2022 05:35 2,8 C 90 % 0,0 l/m 11,3 km/h (2 Bft) S-SO 157 0 min 0 min 0,000 mm 0,0 UV-I 0 W/m 1,3 C -0,3 C 16,1 km/h (3 Bft) 100,00 %
28.11.2022 05:34 2,8 C 90 % 0,0 l/m 11,3 km/h (2 Bft) S-SO 157 0 min 0 min 0,000 mm 0,0 UV-I 0 W/m 1,3 C -0,3 C 17,7 km/h (3 Bft) 100,00 %
28.11.2022 05:33 2,8 C 90 % 0,0 l/m 11,3 km/h (2 Bft) S-SO 157 0 min 0 min 0,000 mm 0,0 UV-I 0 W/m 1,3 C -0,3 C 17,7 km/h (3 Bft) 95,65 %
28.11.2022 05:32 2,8 C 90 % 0,0 l/m 11,3 km/h (2 Bft) S-SO 157 0 min 0 min 0,000 mm 0,0 UV-I 0 W/m 1,3 C -0,3 C 19,3 km/h (3 Bft) 100,00 %
28.11.2022 05:31 2,8 C 90 % 0,0 l/m 12,9 km/h (3 Bft) S-SO 157 0 min 0 min 0,000 mm 0,0 UV-I 0 W/m 1,3 C -0,6 C 16,1 km/h (3 Bft) 100,00 %
28.11.2022 05:30 2,8 C 90 % 0,0 l/m 14,5 km/h (3 Bft) S-SO 157 0 min 0 min 0,000 mm 0,0 UV-I 0 W/m 1,3 C -0,9 C 19,3 km/h (3 Bft) 100,00 %
28.11.2022 05:29 2,8 C 90 % 0,0 l/m 12,9 km/h (3 Bft) S 180 0 min 0 min 0,000 mm 0,0 UV-I 0 W/m 1,3 C -0,6 C 19,3 km/h (3 Bft) 100,00 %
28.11.2022 05:28 2,8 C 90 % 0,0 l/m 14,5 km/h (3 Bft) S-SO 157 0 min 0 min 0,000 mm 0,0 UV-I 0 W/m 1,3 C -0,9 C 19,3 km/h (3 Bft) 100,00 %
28.11.2022 05:27 2,8 C 90 % 0,0 l/m 12,9 km/h (3 Bft) S-SO 157 0 min 0 min 0,000 mm 0,0 UV-I 0 W/m 1,3 C -0,6 C 16,1 km/h (3 Bft) 100,00 %
28.11.2022 05:26 2,8 C 90 % 0,0 l/m 12,9 km/h (3 Bft) S 180 0 min 0 min 0,000 mm 0,0 UV-I 0 W/m 1,3 C -0,6 C 17,7 km/h (3 Bft) 95,65 %
28.11.2022 05:25 2,8 C 90 % 0,0 l/m 12,9 km/h (3 Bft) S-SO 157 0 min 0 min 0,000 mm 0,0 UV-I 0 W/m 1,3 C -0,6 C 17,7 km/h (3 Bft) 100,00 %
28.11.2022 05:24 2,8 C 90 % 0,0 l/m 16,1 km/h (3 Bft) S-SO 157 0 min 0 min 0,000 mm 0,0 UV-I 0 W/m 1,3 C -1,1 C 19,3 km/h (3 Bft) 100,00 %
28.11.2022 05:23 2,8 C 90 % 0,0 l/m 12,9 km/h (3 Bft) S-SO 157 0 min 0 min 0,000 mm 0,0 UV-I 0 W/m 1,3 C -0,6 C 19,3 km/h (3 Bft) 100,00 %
28.11.2022 05:22 2,8 C 90 % 0,0 l/m 9,7 km/h (2 Bft) S-SO 157 0 min 0 min 0,000 mm 0,0 UV-I 0 W/m 1,3 C 0,1 C 16,1 km/h (3 Bft) 100,00 %
28.11.2022 05:21 2,8 C 90 % 0,0 l/m 12,9 km/h (3 Bft) S-SO 157 0 min 0 min 0,000 mm 0,0 UV-I 0 W/m 1,3 C -0,6 C 17,7 km/h (3 Bft) 100,00 %
28.11.2022 05:20 2,8 C 90 % 0,0 l/m 9,7 km/h (2 Bft) S-SO 157 0 min 0 min 0,000 mm 0,0 UV-I 0 W/m 1,3 C 0,1 C 16,1 km/h (3 Bft) 91,30 %
28.11.2022 05:19 2,8 C 90 % 0,0 l/m 11,3 km/h (2 Bft) S-SO 157 0 min 0 min 0,000 mm 0,0 UV-I 0 W/m 1,3 C -0,3 C 19,3 km/h (3 Bft) 95,65 %
28.11.2022 05:18 2,8 C 90 % 0,0 l/m 9,7 km/h (2 Bft) SO 135 0 min 0 min 0,000 mm 0,0 UV-I 0 W/m 1,3 C 0,1 C 16,1 km/h (3 Bft) 95,65 %
28.11.2022 05:17 2,8 C 90 % 0,0 l/m 12,9 km/h (3 Bft) S-SO 157 0 min 0 min 0,000 mm 0,0 UV-I 0 W/m 1,3 C -0,6 C 17,7 km/h (3 Bft) 100,00 %
28.11.2022 05:16 2,8 C 90 % 0,0 l/m 11,3 km/h (2 Bft) SO 135 0 min 0 min 0,000 mm 0,0 UV-I 0 W/m 1,3 C -0,3 C 22,5 km/h (4 Bft) 95,65 %
28.11.2022 05:15 2,8 C 90 % 0,0 l/m 11,3 km/h (2 Bft) S-SO 157 0 min 0 min 0,000 mm 0,0 UV-I 0 W/m 1,3 C -0,3 C 16,1 km/h (3 Bft) 100,00 %
28.11.2022 05:14 2,8 C 90 % 0,0 l/m 11,3 km/h (2 Bft) S-SO 157 0 min 0 min 0,000 mm 0,0 UV-I 0 W/m 1,3 C -0,3 C 16,1 km/h (3 Bft) 95,65 %
28.11.2022 05:13 2,8 C 90 % 0,0 l/m 11,3 km/h (2 Bft) SO 135 0 min 0 min 0,000 mm 0,0 UV-I 0 W/m 1,3 C -0,3 C 14,5 km/h (3 Bft) 100,00 %
28.11.2022 05:12 2,8 C 90 % 0,0 l/m 9,7 km/h (2 Bft) S-SO 157 0 min 0 min 0,000 mm 0,0 UV-I 0 W/m 1,3 C 0,1 C 14,5 km/h (3 Bft) 95,65 %
28.11.2022 05:11 2,8 C 90 % 0,0 l/m 8,0 km/h (2 Bft) SO 135 0 min 0 min 0,000 mm 0,0 UV-I 0 W/m 1,3 C 0,6 C 16,1 km/h (3 Bft) 100,00 %
28.11.2022 05:10 2,8 C 90 % 0,0 l/m 8,0 km/h (2 Bft) S-SO 157 0 min 0 min 0,000 mm 0,0 UV-I 0 W/m 1,3 C 0,6 C 11,3 km/h (2 Bft) 100,00 %
28.11.2022 05:09 2,8 C 90 % 0,0 l/m 9,7 km/h (2 Bft) SO 135 0 min 0 min 0,000 mm 0,0 UV-I 0 W/m 1,3 C 0,1 C 17,7 km/h (3 Bft) 100,00 %
28.11.2022 05:08 2,8 C 90 % 0,0 l/m 8,0 km/h (2 Bft) SO 135 0 min 0 min 0,000 mm 0,0 UV-I 0 W/m 1,3 C 0,6 C 14,5 km/h (3 Bft) 100,00 %
28.11.2022 05:07 2,8 C 90 % 0,0 l/m 9,7 km/h (2 Bft) S-SO 157 0 min 0 min 0,000 mm 0,0 UV-I 0 W/m 1,3 C 0,1 C 17,7 km/h (3 Bft) 100,00 %
28.11.2022 05:06 2,8 C 90 % 0,0 l/m 8,0 km/h (2 Bft) S-SO 157 0 min 0 min 0,000 mm 0,0 UV-I 0 W/m 1,3 C 0,6 C 11,3 km/h (2 Bft) 100,00 %
28.11.2022 05:05 2,8 C 90 % 0,0 l/m 8,0 km/h (2 Bft) S-SO 157 0 min 0 min 0,000 mm 0,0 UV-I 0 W/m 1,3 C 0,6 C 9,7 km/h (2 Bft) 95,65 %
28.11.2022 05:04 2,8 C 90 % 0,0 l/m 6,4 km/h (2 Bft) S-SO 157 0 min 0 min 0,000 mm 0,0 UV-I 0 W/m 1,3 C 1,1 C 9,7 km/h (2 Bft) 100,00 %
28.11.2022 05:03 2,8 C 90 % 0,0 l/m 9,7 km/h (2 Bft) S-SO 157 0 min 0 min 0,000 mm 0,0 UV-I 0 W/m 1,3 C 0,1 C 14,5 km/h (3 Bft) 100,00 %
28.11.2022 05:02 2,8 C 90 % 0,0 l/m 11,3 km/h (2 Bft) S 180 0 min 0 min 0,000 mm 0,0 UV-I 0 W/m 1,3 C -0,3 C 17,7 km/h (3 Bft) 100,00 %
28.11.2022 05:01 2,8 C 90 % 0,0 l/m 12,9 km/h (3 Bft) S-SO 157 0 min 0 min 0,000 mm 0,0 UV-I 0 W/m 1,3 C -0,6 C 16,1 km/h (3 Bft) 100,00 %
28.11.2022 05:00 2,8 C 90 % 0,0 l/m 14,5 km/h (3 Bft) S-SO 157 0 min 0 min 0,000 mm 0,0 UV-I 0 W/m 1,3 C -0,9 C 19,3 km/h (3 Bft) 95,65 %
28.11.2022 04:59 2,8 C 90 % 0,0 l/m 12,9 km/h (3 Bft) S-SO 157 0 min 0 min 0,000 mm 0,0 UV-I 0 W/m 1,3 C -0,6 C 16,1 km/h (3 Bft) 100,00 %
28.11.2022 04:58 2,8 C 90 % 0,0 l/m 12,9 km/h (3 Bft) S-SO 157 0 min 0 min 0,000 mm 0,0 UV-I 0 W/m 1,3 C -0,6 C 16,1 km/h (3 Bft) 95,65 %
28.11.2022 04:57 2,8 C 90 % 0,0 l/m 11,3 km/h (2 Bft) S-SO 157 0 min 0 min 0,000 mm 0,0 UV-I 0 W/m 1,3 C -0,3 C 16,1 km/h (3 Bft) 100,00 %
28.11.2022 04:56 2,8 C 90 % 0,0 l/m 16,1 km/h (3 Bft) S-SO 157 0 min 0 min 0,000 mm 0,0 UV-I 0 W/m 1,3 C -1,1 C 22,5 km/h (4 Bft) 100,00 %
28.11.2022 04:55 2,8 C 90 % 0,0 l/m 14,5 km/h (3 Bft) S-SO 157 0 min 0 min 0,000 mm 0,0 UV-I 0 W/m 1,3 C -0,9 C 17,7 km/h (3 Bft) 100,00 %
28.11.2022 04:54 2,8 C 90 % 0,0 l/m 12,9 km/h (3 Bft) S-SO 157 0 min 0 min 0,000 mm 0,0 UV-I 0 W/m 1,3 C -0,6 C 17,7 km/h (3 Bft) 100,00 %
28.11.2022 04:53 2,8 C 90 % 0,0 l/m 12,9 km/h (3 Bft) S-SO 157 0 min 0 min 0,000 mm 0,0 UV-I 0 W/m 1,3 C -0,6 C 16,1 km/h (3 Bft) 100,00 %
28.11.2022 04:52 2,8 C 90 % 0,0 l/m 17,7 km/h (3 Bft) S-SO 157 0 min 0 min 0,000 mm 0,0 UV-I 0 W/m 1,3 C -1,4 C 24,1 km/h (4 Bft) 100,00 %
28.11.2022 04:51 2,8 C 90 % 0,0 l/m 11,3 km/h (2 Bft) S-SO 157 0 min 0 min 0,000 mm 0,0 UV-I 0 W/m 1,3 C -0,3 C 14,5 km/h (3 Bft) 95,65 %
28.11.2022 04:50 2,8 C 90 % 0,0 l/m 12,9 km/h (3 Bft) S-SO 157 0 min 0 min 0,000 mm 0,0 UV-I 0 W/m 1,3 C -0,6 C 19,3 km/h (3 Bft) 95,65 %
28.11.2022 04:49 2,8 C 90 % 0,0 l/m 8,0 km/h (2 Bft) S-SO 157 0 min 0 min 0,000 mm 0,0 UV-I 0 W/m 1,3 C 0,6 C 17,7 km/h (3 Bft) 100,00 %
28.11.2022 04:48 2,8 C 90 % 0,0 l/m 9,7 km/h (2 Bft) S-SO 157 0 min 0 min 0,000 mm 0,0 UV-I 0 W/m 1,3 C 0,1 C 17,7 km/h (3 Bft) 91,30 %
28.11.2022 04:47 2,8 C 90 % 0,0 l/m 11,3 km/h (2 Bft) S-SO 157 0 min 0 min 0,000 mm 0,0 UV-I 0 W/m 1,3 C -0,3 C 17,7 km/h (3 Bft) 100,00 %
28.11.2022 04:46 2,8 C 90 % 0,0 l/m 11,3 km/h (2 Bft) S 180 0 min 0 min 0,000 mm 0,0 UV-I 0 W/m 1,3 C -0,3 C 17,7 km/h (3 Bft) 91,30 %
28.11.2022 04:45 2,8 C 90 % 0,0 l/m 14,5 km/h (3 Bft) S-SO 157 0 min 0 min 0,000 mm 0,0 UV-I 0 W/m 1,3 C -0,9 C 19,3 km/h (3 Bft) 95,65 %
28.11.2022 04:44 2,8 C 90 % 0,0 l/m 14,5 km/h (3 Bft) S-SO 157 0 min 0 min 0,000 mm 0,0 UV-I 0 W/m 1,3 C -0,9 C 20,9 km/h (4 Bft) 91,30 %
28.11.2022 04:43 2,8 C 90 % 0,0 l/m 11,3 km/h (2 Bft) S 180 0 min 0 min 0,000 mm 0,0 UV-I 0 W/m 1,3 C -0,3 C 17,7 km/h (3 Bft) 95,65 %
28.11.2022 04:42 2,8 C 90 % 0,0 l/m 16,1 km/h (3 Bft) S-SO 157 0 min 0 min 0,000 mm 0,0 UV-I 0 W/m 1,3 C -1,1 C 19,3 km/h (3 Bft) 95,65 %
28.11.2022 04:41 2,8 C 90 % 0,0 l/m 11,3 km/h (2 Bft) S-SO 157 0 min 0 min 0,000 mm 0,0 UV-I 0 W/m 1,3 C -0,3 C 17,7 km/h (3 Bft) 95,65 %
28.11.2022 04:40 2,8 C 90 % 0,0 l/m 16,1 km/h (3 Bft) S-SO 157 0 min 0 min 0,000 mm 0,0 UV-I 0 W/m 1,3 C -1,1 C 20,9 km/h (4 Bft) 100,00 %
28.11.2022 04:39 2,8 C 90 % 0,0 l/m 14,5 km/h (3 Bft) S-SO 157 0 min 0 min 0,000 mm 0,0 UV-I 0 W/m 1,3 C -0,9 C 19,3 km/h (3 Bft) 95,65 %
28.11.2022 04:38 2,8 C 90 % 0,0 l/m 9,7 km/h (2 Bft) S-SO 157 0 min 0 min 0,000 mm 0,0 UV-I 0 W/m 1,3 C 0,1 C 17,7 km/h (3 Bft) 100,00 %
28.11.2022 04:37 2,8 C 90 % 0,0 l/m 12,9 km/h (3 Bft) S-SO 157 0 min 0 min 0,000 mm 0,0 UV-I 0 W/m 1,3 C -0,6 C 16,1 km/h (3 Bft) 91,30 %
28.11.2022 04:36 2,8 C 90 % 0,0 l/m 11,3 km/h (2 Bft) S-SO 157 0 min 0 min 0,000 mm 0,0 UV-I 0 W/m 1,3 C -0,3 C 12,9 km/h (3 Bft) 95,65 %
28.11.2022 04:35 2,8 C 90 % 0,0 l/m 11,3 km/h (2 Bft) S-SO 157 0 min 0 min 0,000 mm 0,0 UV-I 0 W/m 1,3 C -0,3 C 16,1 km/h (3 Bft) 100,00 %
28.11.2022 04:34 2,8 C 90 % 0,0 l/m 11,3 km/h (2 Bft) S 180 0 min 0 min 0,000 mm 0,0 UV-I 0 W/m 1,3 C -0,3 C 16,1 km/h (3 Bft) 95,65 %
28.11.2022 04:33 2,8 C 90 % 0,0 l/m 8,0 km/h (2 Bft) SO 135 0 min 0 min 0,000 mm 0,0 UV-I 0 W/m 1,3 C 0,6 C 14,5 km/h (3 Bft) 100,00 %
28.11.2022 04:32 2,8 C 90 % 0,0 l/m 11,3 km/h (2 Bft) S 180 0 min 0 min 0,000 mm 0,0 UV-I 0 W/m 1,3 C -0,3 C 20,9 km/h (4 Bft) 95,65 %
28.11.2022 04:31 2,8 C 90 % 0,0 l/m 8,0 km/h (2 Bft) S-SO 157 0 min 0 min 0,000 mm 0,0 UV-I 0 W/m 1,3 C 0,6 C 11,3 km/h (2 Bft) 100,00 %
28.11.2022 04:30 2,8 C 90 % 0,0 l/m 9,7 km/h (2 Bft) SO 135 0 min 0 min 0,000 mm 0,0 UV-I 0 W/m 1,3 C 0,1 C 17,7 km/h (3 Bft) 91,30 %
28.11.2022 04:29 2,8 C 90 % 0,0 l/m 11,3 km/h (2 Bft) S-SO 157 0 min 0 min 0,000 mm 0,0 UV-I 0 W/m 1,3 C -0,3 C 19,3 km/h (3 Bft) 100,00 %
28.11.2022 04:28 2,8 C 90 % 0,0 l/m 9,7 km/h (2 Bft) S-SO 157 0 min 0 min 0,000 mm 0,0 UV-I 0 W/m 1,3 C 0,1 C 12,9 km/h (3 Bft) 95,65 %
28.11.2022 04:27 2,8 C 90 % 0,0 l/m 8,0 km/h (2 Bft) S-SO 157 0 min 0 min 0,000 mm 0,0 UV-I 0 W/m 1,3 C 0,6 C 11,3 km/h (2 Bft) 95,65 %
28.11.2022 04:26 2,8 C 90 % 0,0 l/m 8,0 km/h (2 Bft) S 180 0 min 0 min 0,000 mm 0,0 UV-I 0 W/m 1,3 C 0,6 C 11,3 km/h (2 Bft) 100,00 %
28.11.2022 04:25 2,8 C 90 % 0,0 l/m 11,3 km/h (2 Bft) S-SO 157 0 min 0 min 0,000 mm 0,0 UV-I 0 W/m 1,3 C -0,3 C 16,1 km/h (3 Bft) 100,00 %
28.11.2022 04:24 2,8 C 90 % 0,0 l/m 6,4 km/h (2 Bft) S 180 0 min 0 min 0,000 mm 0,0 UV-I 0 W/m 1,3 C 1,1 C 11,3 km/h (2 Bft) 100,00 %
28.11.2022 04:23 2,8 C 90 % 0,0 l/m 6,4 km/h (2 Bft) S 180 0 min 0 min 0,000 mm 0,0 UV-I 0 W/m 1,3 C 1,1 C 9,7 km/h (2 Bft) 95,65 %
28.11.2022 04:22 2,8 C 90 % 0,0 l/m 9,7 km/h (2 Bft) S-SO 157 0 min 0 min 0,000 mm 0,0 UV-I 0 W/m 1,3 C 0,1 C 17,7 km/h (3 Bft) 100,00 %
28.11.2022 04:21 2,8 C 90 % 0,0 l/m 4,8 km/h (1 Bft) S-SO 157 0 min 0 min 0,000 mm 0,0 UV-I 0 W/m 1,3 C 1,7 C 8,0 km/h (2 Bft) 100,00 %
28.11.2022 04:20 2,8 C 90 % 0,0 l/m 6,4 km/h (2 Bft) S-SO 157 0 min 0 min 0,000 mm 0,0 UV-I 0 W/m 1,3 C 1,1 C 8,0 km/h (2 Bft) 100,00 %
28.11.2022 04:19 2,8 C 90 % 0,0 l/m 6,4 km/h (2 Bft) S-SO 157 0 min 0 min 0,000 mm 0,0 UV-I 0 W/m 1,3 C 1,1 C 9,7 km/h (2 Bft) 100,00 %
28.11.2022 04:18 2,8 C 90 % 0,0 l/m 8,0 km/h (2 Bft) S-SO 157 0 min 0 min 0,000 mm 0,0 UV-I 0 W/m 1,3 C 0,6 C 11,3 km/h (2 Bft) 95,65 %
28.11.2022 04:17 2,8 C 90 % 0,0 l/m 6,4 km/h (2 Bft) S-SW 202 0 min 0 min 0,000 mm 0,0 UV-I 0 W/m 1,3 C 1,1 C 11,3 km/h (2 Bft) 100,00 %
28.11.2022 04:16 2,8 C 90 % 0,0 l/m 6,4 km/h (2 Bft) S 180 0 min 0 min 0,000 mm 0,0 UV-I 0 W/m 1,3 C 1,1 C 11,3 km/h (2 Bft) 91,30 %
28.11.2022 04:15 2,8 C 90 % 0,0 l/m 8,0 km/h (2 Bft) S-SO 157 0 min 0 min 0,000 mm 0,0 UV-I 0 W/m 1,3 C 0,6 C 11,3 km/h (2 Bft) 100,00 %
28.11.2022 04:14 2,8 C 90 % 0,0 l/m 8,0 km/h (2 Bft) S 180 0 min 0 min 0,000 mm 0,0 UV-I 0 W/m 1,3 C 0,6 C 12,9 km/h (3 Bft) 100,00 %
28.11.2022 04:13 2,8 C 90 % 0,0 l/m 6,4 km/h (2 Bft) S 180 0 min 0 min 0,000 mm 0,0 UV-I 0 W/m 1,3 C 1,1 C 8,0 km/h (2 Bft) 100,00 %
28.11.2022 04:12 2,8 C 90 % 0,0 l/m 6,4 km/h (2 Bft) SO 135 0 min 0 min 0,000 mm 0,0 UV-I 0 W/m 1,3 C 1,1 C 11,3 km/h (2 Bft) 95,65 %
28.11.2022 04:11 2,8 C 90 % 0,0 l/m 9,7 km/h (2 Bft) SO 135 0 min 0 min 0,000 mm 0,0 UV-I 0 W/m 1,3 C 0,1 C 12,9 km/h (3 Bft) 100,00 %
28.11.2022 04:10 2,8 C 90 % 0,0 l/m 9,7 km/h (2 Bft) S 180 0 min 0 min 0,000 mm 0,0 UV-I 0 W/m 1,3 C 0,1 C 16,1 km/h (3 Bft) 95,65 %
28.11.2022 04:09 2,8 C 90 % 0,0 l/m 6,4 km/h (2 Bft) S 180 0 min 0 min 0,000 mm 0,0 UV-I 0 W/m 1,3 C 1,1 C 9,7 km/h (2 Bft) 95,65 %
28.11.2022 04:08 2,8 C 90 % 0,0 l/m 6,4 km/h (2 Bft) S 180 0 min 0 min 0,000 mm 0,0 UV-I 0 W/m 1,3 C 1,1 C 9,7 km/h (2 Bft) 100,00 %
28.11.2022 04:07 2,8 C 90 % 0,0 l/m 8,0 km/h (2 Bft) S-SO 157 0 min 0 min 0,000 mm 0,0 UV-I 0 W/m 1,3 C 0,6 C 12,9 km/h (3 Bft) 100,00 %
28.11.2022 04:06 2,8 C 90 % 0,0 l/m 6,4 km/h (2 Bft) S-SO 157 0 min 0 min 0,000 mm 0,0 UV-I 0 W/m 1,3 C 1,1 C 8,0 km/h (2 Bft) 100,00 %
28.11.2022 04:05 2,8 C 90 % 0,0 l/m 6,4 km/h (2 Bft) S-SO 157 0 min 0 min 0,000 mm 0,0 UV-I 0 W/m 1,3 C 1,1 C 8,0 km/h (2 Bft) 100,00 %
28.11.2022 04:04 2,8 C 90 % 0,0 l/m 6,4 km/h (2 Bft) S-SW 202 0 min 0 min 0,000 mm 0,0 UV-I 0 W/m 1,3 C 1,1 C 9,7 km/h (2 Bft) 100,00 %
28.11.2022 04:03 2,8 C 90 % 0,0 l/m 11,3 km/h (2 Bft) S 180 0 min 0 min 0,000 mm 0,0 UV-I 0 W/m 1,3 C -0,3 C 14,5 km/h (3 Bft) 100,00 %
28.11.2022 04:02 2,8 C 90 % 0,0 l/m 4,8 km/h (1 Bft) S 180 0 min 0 min 0,000 mm 0,0 UV-I 0 W/m 1,3 C 1,7 C 9,7 km/h (2 Bft) 95,65 %
28.11.2022 04:01 2,8 C 90 % 0,0 l/m 4,8 km/h (1 Bft) S 180 0 min 0 min 0,000 mm 0,0 UV-I 0 W/m 1,3 C 1,7 C 8,0 km/h (2 Bft) 100,00 %
28.11.2022 04:00 2,8 C 90 % 0,0 l/m 8,0 km/h (2 Bft) S-SO 157 0 min 0 min 0,000 mm 0,0 UV-I 0 W/m 1,3 C 0,6 C 11,3 km/h (2 Bft) 100,00 %
28.11.2022 03:59 2,8 C 90 % 0,0 l/m 9,7 km/h (2 Bft) S-SO 157 0 min 0 min 0,000 mm 0,0 UV-I 0 W/m 1,3 C 0,1 C 12,9 km/h (3 Bft) 100,00 %
28.11.2022 03:58 2,8 C 90 % 0,0 l/m 3,2 km/h (1 Bft) S-SW 202 0 min 0 min 0,000 mm 0,0 UV-I 0 W/m 1,3 C 2,8 C 8,0 km/h (2 Bft) 100,00 %
28.11.2022 03:57 2,8 C 90 % 0,0 l/m 4,8 km/h (1 Bft) S-SO 157 0 min 0 min 0,000 mm 0,0 UV-I 0 W/m 1,3 C 1,7 C 8,0 km/h (2 Bft) 100,00 %
28.11.2022 03:56 2,8 C 90 % 0,0 l/m 6,4 km/h (2 Bft) S 180 0 min 0 min 0,000 mm 0,0 UV-I 0 W/m 1,3 C 1,1 C 9,7 km/h (2 Bft) 100,00 %
28.11.2022 03:55 2,8 C 90 % 0,0 l/m 4,8 km/h (1 Bft) SO 135 0 min 0 min 0,000 mm 0,0 UV-I 0 W/m 1,3 C 1,7 C 8,0 km/h (2 Bft) 95,65 %
28.11.2022 03:54 2,8 C 90 % 0,0 l/m 4,8 km/h (1 Bft) SO 135 0 min 0 min 0,000 mm 0,0 UV-I 0 W/m 1,3 C 1,7 C 8,0 km/h (2 Bft) 100,00 %
28.11.2022 03:53 2,8 C 90 % 0,0 l/m 9,7 km/h (2 Bft) SO 135 0 min 0 min 0,000 mm 0,0 UV-I 0 W/m 1,3 C 0,1 C 14,5 km/h (3 Bft) 100,00 %
28.11.2022 03:52 2,8 C 90 % 0,0 l/m 4,8 km/h (1 Bft) SO 135 0 min 0 min 0,000 mm 0,0 UV-I 0 W/m 1,3 C 1,7 C 8,0 km/h (2 Bft) 100,00 %
28.11.2022 03:51 2,8 C 90 % 0,0 l/m 8,0 km/h (2 Bft) SO 135 0 min 0 min 0,000 mm 0,0 UV-I 0 W/m 1,3 C 0,6 C 14,5 km/h (3 Bft) 100,00 %
28.11.2022 03:50 2,8 C 90 % 0,0 l/m 11,3 km/h (2 Bft) SO 135 0 min 0 min 0,000 mm 0,0 UV-I 0 W/m 1,3 C -0,3 C 19,3 km/h (3 Bft) 100,00 %
28.11.2022 03:49 2,8 C 90 % 0,0 l/m 8,0 km/h (2 Bft) S-SO 157 0 min 0 min 0,000 mm 0,0 UV-I 0 W/m 1,3 C 0,6 C 11,3 km/h (2 Bft) 100,00 %
28.11.2022 03:48 2,8 C 90 % 0,0 l/m 8,0 km/h (2 Bft) S 180 0 min 0 min 0,000 mm 0,0 UV-I 0 W/m 1,3 C 0,6 C 12,9 km/h (3 Bft) 95,65 %
28.11.2022 03:47 2,8 C 90 % 0,0 l/m 6,4 km/h (2 Bft) SO 135 0 min 0 min 0,000 mm 0,0 UV-I 0 W/m 1,3 C 1,1 C 11,3 km/h (2 Bft) 100,00 %
28.11.2022 03:46 2,8 C 90 % 0,0 l/m 4,8 km/h (1 Bft) SO 135 0 min 0 min 0,000 mm 0,0 UV-I 0 W/m 1,3 C 1,7 C 8,0 km/h (2 Bft) 95,65 %
28.11.2022 03:45 2,8 C 90 % 0,0 l/m 8,0 km/h (2 Bft) SO 135 0 min 0 min 0,000 mm 0,0 UV-I 0 W/m 1,3 C 0,6 C 12,9 km/h (3 Bft) 100,00 %
28.11.2022 03:44 2,8 C 90 % 0,0 l/m 8,0 km/h (2 Bft) SO 135 0 min 0 min 0,000 mm 0,0 UV-I 0 W/m 1,3 C 0,6 C 12,9 km/h (3 Bft) 95,65 %
28.11.2022 03:43 2,8 C 90 % 0,0 l/m 6,4 km/h (2 Bft) SO 135 0 min 0 min 0,000 mm 0,0 UV-I 0 W/m 1,3 C 1,1 C 12,9 km/h (3 Bft) 100,00 %
28.11.2022 03:42 2,8 C 90 % 0,0 l/m 9,7 km/h (2 Bft) SO 135 0 min 0 min 0,000 mm 0,0 UV-I 0 W/m 1,3 C 0,1 C 12,9 km/h (3 Bft) 95,65 %
28.11.2022 03:41 2,8 C 90 % 0,0 l/m 4,8 km/h (1 Bft) SO 135 0 min 0 min 0,000 mm 0,0 UV-I 0 W/m 1,3 C 1,7 C 8,0 km/h (2 Bft) 95,65 %
28.11.2022 03:40 2,8 C 90 % 0,0 l/m 9,7 km/h (2 Bft) SO 135 0 min 0 min 0,000 mm 0,0 UV-I 0 W/m 1,3 C 0,1 C 14,5 km/h (3 Bft) 95,65 %
28.11.2022 03:39 2,8 C 90 % 0,0 l/m 9,7 km/h (2 Bft) SO 135 0 min 0 min 0,000 mm 0,0 UV-I 0 W/m 1,3 C 0,1 C 12,9 km/h (3 Bft) 100,00 %
28.11.2022 03:38 2,8 C 90 % 0,0 l/m 4,8 km/h (1 Bft) SO 135 0 min 0 min 0,000 mm 0,0 UV-I 0 W/m 1,3 C 1,7 C 8,0 km/h (2 Bft) 100,00 %
28.11.2022 03:37 2,8 C 90 % 0,0 l/m 6,4 km/h (2 Bft) SO 135 0 min 0 min 0,000 mm 0,0 UV-I 0 W/m 1,3 C 1,1 C 11,3 km/h (2 Bft) 100,00 %
28.11.2022 03:36 2,8 C 90 % 0,0 l/m 6,4 km/h (2 Bft) SO 135 0 min 0 min 0,000 mm 0,0 UV-I 0 W/m 1,3 C 1,1 C 11,3 km/h (2 Bft) 95,65 %
28.11.2022 03:35 2,8 C 90 % 0,0 l/m 8,0 km/h (2 Bft) SO 135 0 min 0 min 0,000 mm 0,0 UV-I 0 W/m 1,3 C 0,6 C 12,9 km/h (3 Bft) 95,65 %
28.11.2022 03:34 2,8 C 90 % 0,0 l/m 4,8 km/h (1 Bft) SO 135 0 min 0 min 0,000 mm 0,0 UV-I 0 W/m 1,3 C 1,7 C 8,0 km/h (2 Bft) 95,65 %
28.11.2022 03:33 2,8 C 90 % 0,0 l/m 6,4 km/h (2 Bft) SO 135 0 min 0 min 0,000 mm 0,0 UV-I 0 W/m 1,3 C 1,1 C 11,3 km/h (2 Bft) 95,65 %
28.11.2022 03:32 2,8 C 90 % 0,0 l/m 8,0 km/h (2 Bft) S-SO 157 0 min 0 min 0,000 mm 0,0 UV-I 0 W/m 1,3 C 0,6 C 12,9 km/h (3 Bft) 100,00 %
28.11.2022 03:31 2,8 C 90 % 0,0 l/m 4,8 km/h (1 Bft) S-SO 157 0 min 0 min 0,000 mm 0,0 UV-I 0 W/m 1,3 C 1,7 C 8,0 km/h (2 Bft) 95,65 %
28.11.2022 03:30 2,8 C 90 % 0,0 l/m 6,4 km/h (2 Bft) S-SO 157 0 min 0 min 0,000 mm 0,0 UV-I 0 W/m 1,3 C 1,1 C 9,7 km/h (2 Bft) 100,00 %
28.11.2022 03:29 2,8 C 90 % 0,0 l/m 6,4 km/h (2 Bft) SO 135 0 min 0 min 0,000 mm 0,0 UV-I 0 W/m 1,3 C 1,1 C 9,7 km/h (2 Bft) 95,65 %
28.11.2022 03:28 2,8 C 90 % 0,0 l/m 6,4 km/h (2 Bft) S 180 0 min 0 min 0,000 mm 0,0 UV-I 0 W/m 1,3 C 1,1 C 8,0 km/h (2 Bft) 100,00 %
28.11.2022 03:27 2,8 C 90 % 0,0 l/m 8,0 km/h (2 Bft) S-SO 157 0 min 0 min 0,000 mm 0,0 UV-I 0 W/m 1,3 C 0,6 C 11,3 km/h (2 Bft) 91,30 %
28.11.2022 03:26 2,8 C 90 % 0,0 l/m 8,0 km/h (2 Bft) S-SO 157 0 min 0 min 0,000 mm 0,0 UV-I 0 W/m 1,3 C 0,6 C 11,3 km/h (2 Bft) 95,65 %
28.11.2022 03:25 2,8 C 90 % 0,0 l/m 6,4 km/h (2 Bft) S-SO 157 0 min 0 min 0,000 mm 0,0 UV-I 0 W/m 1,3 C 1,1 C 11,3 km/h (2 Bft) 100,00 %
28.11.2022 03:24 2,8 C 90 % 0,0 l/m 6,4 km/h (2 Bft) S 180 0 min 0 min 0,000 mm 0,0 UV-I 0 W/m 1,3 C 1,1 C 9,7 km/h (2 Bft) 95,65 %
28.11.2022 03:23 2,8 C 90 % 0,0 l/m 6,4 km/h (2 Bft) S-SO 157 0 min 0 min 0,000 mm 0,0 UV-I 0 W/m 1,3 C 1,1 C 9,7 km/h (2 Bft) 100,00 %
28.11.2022 03:22 2,8 C 90 % 0,0 l/m 4,8 km/h (1 Bft) S-SO 157 0 min 0 min 0,000 mm 0,0 UV-I 0 W/m 1,3 C 1,7 C 8,0 km/h (2 Bft) 95,65 %
28.11.2022 03:21 2,8 C 90 % 0,0 l/m 4,8 km/h (1 Bft) S-SO 157 0 min 0 min 0,000 mm 0,0 UV-I 0 W/m 1,3 C 1,7 C 8,0 km/h (2 Bft) 100,00 %
28.11.2022 03:20 2,8 C 90 % 0,0 l/m 6,4 km/h (2 Bft) S 180 0 min 0 min 0,000 mm 0,0 UV-I 0 W/m 1,3 C 1,1 C 11,3 km/h (2 Bft) 91,30 %
28.11.2022 03:19 2,8 C 90 % 0,0 l/m 4,8 km/h (1 Bft) SO 135 0 min 0 min 0,000 mm 0,0 UV-I 0 W/m 1,3 C 1,7 C 9,7 km/h (2 Bft) 100,00 %
28.11.2022 03:18 2,8 C 90 % 0,0 l/m 8,0 km/h (2 Bft) SO 135 0 min 0 min 0,000 mm 0,0 UV-I 0 W/m 1,3 C 0,6 C 14,5 km/h (3 Bft) 95,65 %
28.11.2022 03:17 2,8 C 90 % 0,0 l/m 8,0 km/h (2 Bft) S-SO 157 0 min 0 min 0,000 mm 0,0 UV-I 0 W/m 1,3 C 0,6 C 11,3 km/h (2 Bft) 95,65 %
28.11.2022 03:16 2,8 C 90 % 0,0 l/m 9,7 km/h (2 Bft) S-SO 157 0 min 0 min 0,000 mm 0,0 UV-I 0 W/m 1,3 C 0,1 C 12,9 km/h (3 Bft) 95,65 %
28.11.2022 03:15 2,8 C 90 % 0,0 l/m 8,0 km/h (2 Bft) SO 135 0 min 0 min 0,000 mm 0,0 UV-I 0 W/m 1,3 C 0,6 C 12,9 km/h (3 Bft) 95,65 %
28.11.2022 03:14 2,8 C 90 % 0,0 l/m 8,0 km/h (2 Bft) SO 135 0 min 0 min 0,000 mm 0,0 UV-I 0 W/m 1,3 C 0,6 C 12,9 km/h (3 Bft) 95,65 %
28.11.2022 03:13 2,8 C 90 % 0,0 l/m 9,7 km/h (2 Bft) S-SO 157 0 min 0 min 0,000 mm 0,0 UV-I 0 W/m 1,3 C 0,1 C 14,5 km/h (3 Bft) 100,00 %
28.11.2022 03:12 2,8 C 90 % 0,0 l/m 9,7 km/h (2 Bft) S-SO 157 0 min 0 min 0,000 mm 0,0 UV-I 0 W/m 1,3 C 0,1 C 11,3 km/h (2 Bft) 91,30 %
28.11.2022 03:11 2,8 C 90 % 0,0 l/m 9,7 km/h (2 Bft) S-SO 157 0 min 0 min 0,000 mm 0,0 UV-I 0 W/m 1,3 C 0,1 C 16,1 km/h (3 Bft) 95,65 %
28.11.2022 03:10 2,8 C 90 % 0,0 l/m 14,5 km/h (3 Bft) S-SO 157 0 min 0 min 0,000 mm 0,0 UV-I 0 W/m 1,3 C -0,9 C 17,7 km/h (3 Bft) 95,65 %
28.11.2022 03:09 2,8 C 90 % 0,0 l/m 11,3 km/h (2 Bft) S-SO 157 0 min 0 min 0,000 mm 0,0 UV-I 0 W/m 1,3 C -0,3 C 14,5 km/h (3 Bft) 100,00 %
28.11.2022 03:08 2,8 C 90 % 0,0 l/m 12,9 km/h (3 Bft) S-SO 157 0 min 0 min 0,000 mm 0,0 UV-I 0 W/m 1,3 C -0,6 C 17,7 km/h (3 Bft) 95,65 %
28.11.2022 03:07 2,8 C 90 % 0,0 l/m 11,3 km/h (2 Bft) S-SO 157 0 min 0 min 0,000 mm 0,0 UV-I 0 W/m 1,3 C -0,3 C 19,3 km/h (3 Bft) 100,00 %
28.11.2022 03:06 2,8 C 89 % 0,0 l/m 12,9 km/h (3 Bft) S-SO 157 0 min 0 min 0,000 mm 0,0 UV-I 0 W/m 1,2 C -0,6 C 17,7 km/h (3 Bft) 100,00 %
28.11.2022 03:05 2,8 C 89 % 0,0 l/m 9,7 km/h (2 Bft) SO 135 0 min 0 min 0,000 mm 0,0 UV-I 0 W/m 1,2 C 0,1 C 16,1 km/h (3 Bft) 95,65 %
28.11.2022 03:04 2,8 C 89 % 0,0 l/m 16,1 km/h (3 Bft) S-SO 157 0 min 0 min 0,000 mm 0,0 UV-I 0 W/m 1,2 C -1,1 C 22,5 km/h (4 Bft) 100,00 %
28.11.2022 03:03 2,8 C 89 % 0,0 l/m 11,3 km/h (2 Bft) S-SO 157 0 min 0 min 0,000 mm 0,0 UV-I 0 W/m 1,2 C -0,3 C 16,1 km/h (3 Bft) 100,00 %
28.11.2022 03:02 2,8 C 89 % 0,0 l/m 11,3 km/h (2 Bft) S-SO 157 0 min 0 min 0,000 mm 0,0 UV-I 0 W/m 1,2 C -0,3 C 19,3 km/h (3 Bft) 100,00 %
28.11.2022 03:01 2,9 C 89 % 0,0 l/m 14,5 km/h (3 Bft) S-SO 157 0 min 0 min 0,000 mm 0,0 UV-I 0 W/m 1,3 C -0,9 C 20,9 km/h (4 Bft) 100,00 %
28.11.2022 03:00 2,9 C 89 % 0,0 l/m 14,5 km/h (3 Bft) S-SO 157 0 min 0 min 0,000 mm 0,0 UV-I 0 W/m 1,3 C -0,9 C 19,3 km/h (3 Bft) 100,00 %
28.11.2022 02:59 2,9 C 89 % 0,0 l/m 12,9 km/h (3 Bft) S-SO 157 0 min 0 min 0,000 mm 0,0 UV-I 0 W/m 1,3 C -0,6 C 17,7 km/h (3 Bft) 100,00 %
28.11.2022 02:58 2,9 C 89 % 0,0 l/m 12,9 km/h (3 Bft) S-SO 157 0 min 0 min 0,000 mm 0,0 UV-I 0 W/m 1,3 C -0,6 C 19,3 km/h (3 Bft) 95,65 %
28.11.2022 02:57 2,9 C 89 % 0,0 l/m 12,9 km/h (3 Bft) SO 135 0 min 0 min 0,000 mm 0,0 UV-I 0 W/m 1,3 C -0,5 C 17,7 km/h (3 Bft) 100,00 %
28.11.2022 02:56 2,9 C 89 % 0,0 l/m 14,5 km/h (3 Bft) S-SO 157 0 min 0 min 0,000 mm 0,0 UV-I 0 W/m 1,3 C -0,9 C 19,3 km/h (3 Bft) 100,00 %
28.11.2022 02:55 2,9 C 89 % 0,0 l/m 12,9 km/h (3 Bft) S-SO 157 0 min 0 min 0,000 mm 0,0 UV-I 0 W/m 1,3 C -0,6 C 17,7 km/h (3 Bft) 100,00 %
28.11.2022 02:54 2,9 C 89 % 0,0 l/m 14,5 km/h (3 Bft) S-SO 157 0 min 0 min 0,000 mm 0,0 UV-I 0 W/m 1,3 C -0,8 C 19,3 km/h (3 Bft) 100,00 %
28.11.2022 02:53 2,9 C 89 % 0,0 l/m 16,1 km/h (3 Bft) S-SO 157 0 min 0 min 0,000 mm 0,0 UV-I 0 W/m 1,3 C -1,0 C 19,3 km/h (3 Bft) 95,65 %
28.11.2022 02:52 2,9 C 89 % 0,0 l/m 14,5 km/h (3 Bft) S-SO 157 0 min 0 min 0,000 mm 0,0 UV-I 0 W/m 1,3 C -0,8 C 19,3 km/h (3 Bft) 100,00 %
28.11.2022 02:51 2,9 C 89 % 0,0 l/m 14,5 km/h (3 Bft) S-SO 157 0 min 0 min 0,000 mm 0,0 UV-I 0 W/m 1,3 C -0,8 C 17,7 km/h (3 Bft) 95,65 %
28.11.2022 02:50 2,9 C 89 % 0,0 l/m 12,9 km/h (3 Bft) S-SO 157 0 min 0 min 0,000 mm 0,0 UV-I 0 W/m 1,3 C -0,5 C 19,3 km/h (3 Bft) 100,00 %
28.11.2022 02:49 2,9 C 89 % 0,0 l/m 12,9 km/h (3 Bft) S-SO 157 0 min 0 min 0,000 mm 0,0 UV-I 0 W/m 1,3 C -0,5 C 16,1 km/h (3 Bft) 100,00 %
28.11.2022 02:48 2,9 C 89 % 0,0 l/m 12,9 km/h (3 Bft) S-SO 157 0 min 0 min 0,000 mm 0,0 UV-I 0 W/m 1,3 C -0,5 C 17,7 km/h (3 Bft) 100,00 %
28.11.2022 02:47 2,9 C 89 % 0,0 l/m 12,9 km/h (3 Bft) S 180 0 min 0 min 0,000 mm 0,0 UV-I 0 W/m 1,3 C -0,5 C 19,3 km/h (3 Bft) 100,00 %
28.11.2022 02:46 2,9 C 89 % 0,0 l/m 12,9 km/h (3 Bft) S-SO 157 0 min 0 min 0,000 mm 0,0 UV-I 0 W/m 1,3 C -0,5 C 16,1 km/h (3 Bft) 100,00 %
28.11.2022 02:45 2,9 C 89 % 0,0 l/m 12,9 km/h (3 Bft) S-SO 157 0 min 0 min 0,000 mm 0,0 UV-I 0 W/m 1,3 C -0,5 C 19,3 km/h (3 Bft) 100,00 %
28.11.2022 02:44 2,9 C 89 % 0,0 l/m 12,9 km/h (3 Bft) S-SO 157 0 min 0 min 0,000 mm 0,0 UV-I 0 W/m 1,3 C -0,5 C 19,3 km/h (3 Bft) 91,30 %
28.11.2022 02:43 2,9 C 89 % 0,0 l/m 16,1 km/h (3 Bft) S-SO 157 0 min 0 min 0,000 mm 0,0 UV-I 0 W/m 1,3 C -1,0 C 20,9 km/h (4 Bft) 100,00 %
28.11.2022 02:42 2,9 C 89 % 0,0 l/m 12,9 km/h (3 Bft) S-SO 157 0 min 0 min 0,000 mm 0,0 UV-I 0 W/m 1,3 C -0,5 C 16,1 km/h (3 Bft) 95,65 %
28.11.2022 02:41 2,9 C 89 % 0,0 l/m 8,0 km/h (2 Bft) SO 135 0 min 0 min 0,000 mm 0,0 UV-I 0 W/m 1,3 C 0,7 C 14,5 km/h (3 Bft) 100,00 %
28.11.2022 02:40 2,9 C 89 % 0,0 l/m 14,5 km/h (3 Bft) S-SO 157 0 min 0 min 0,000 mm 0,0 UV-I 0 W/m 1,3 C -0,8 C 22,5 km/h (4 Bft) 95,65 %
28.11.2022 02:39 2,9 C 89 % 0,0 l/m 12,9 km/h (3 Bft) S-SO 157 0 min 0 min 0,000 mm 0,0 UV-I 0 W/m 1,3 C -0,5 C 17,7 km/h (3 Bft) 100,00 %
28.11.2022 02:38 2,9 C 89 % 0,0 l/m 11,3 km/h (2 Bft) S-SO 157 0 min 0 min 0,000 mm 0,0 UV-I 0 W/m 1,3 C -0,1 C 12,9 km/h (3 Bft) 95,65 %
28.11.2022 02:37 2,9 C 89 % 0,0 l/m 12,9 km/h (3 Bft) S-SO 157 0 min 0 min 0,000 mm 0,0 UV-I 0 W/m 1,3 C -0,5 C 17,7 km/h (3 Bft) 95,65 %
28.11.2022 02:36 2,9 C 89 % 0,0 l/m 11,3 km/h (2 Bft) SO 135 0 min 0 min 0,000 mm 0,0 UV-I 0 W/m 1,3 C -0,1 C 14,5 km/h (3 Bft) 95,65 %
28.11.2022 02:35 2,9 C 89 % 0,0 l/m 12,9 km/h (3 Bft) S-SO 157 0 min 0 min 0,000 mm 0,0 UV-I 0 W/m 1,3 C -0,5 C 17,7 km/h (3 Bft) 100,00 %
28.11.2022 02:34 2,9 C 89 % 0,0 l/m 11,3 km/h (2 Bft) SO 135 0 min 0 min 0,000 mm 0,0 UV-I 0 W/m 1,3 C -0,1 C 16,1 km/h (3 Bft) 100,00 %
28.11.2022 02:33 2,9 C 89 % 0,0 l/m 12,9 km/h (3 Bft) S-SO 157 0 min 0 min 0,000 mm 0,0 UV-I 0 W/m 1,3 C -0,5 C 19,3 km/h (3 Bft) 100,00 %
28.11.2022 02:32 2,9 C 89 % 0,0 l/m 11,3 km/h (2 Bft) S 180 0 min 0 min 0,000 mm 0,0 UV-I 0 W/m 1,3 C -0,1 C 16,1 km/h (3 Bft) 100,00 %
28.11.2022 02:31 2,9 C 89 % 0,0 l/m 9,7 km/h (2 Bft) S-SO 157 0 min 0 min 0,000 mm 0,0 UV-I 0 W/m 1,3 C 0,2 C 14,5 km/h (3 Bft) 100,00 %
28.11.2022 02:30 2,9 C 89 % 0,0 l/m 9,7 km/h (2 Bft) S-SO 157 0 min 0 min 0,000 mm 0,0 UV-I 0 W/m 1,3 C 0,2 C 12,9 km/h (3 Bft) 95,65 %
28.11.2022 02:29 2,9 C 89 % 0,0 l/m 11,3 km/h (2 Bft) S-SO 157 0 min 0 min 0,000 mm 0,0 UV-I 0 W/m 1,3 C -0,1 C 16,1 km/h (3 Bft) 100,00 %
28.11.2022 02:28 2,9 C 89 % 0,0 l/m 11,3 km/h (2 Bft) S 180 0 min 0 min 0,000 mm 0,0 UV-I 0 W/m 1,3 C -0,1 C 17,7 km/h (3 Bft) 100,00 %
28.11.2022 02:27 2,9 C 89 % 0,0 l/m 1,6 km/h (1 Bft) S-SO 157 0 min 0 min 0,000 mm 0,0 UV-I 0 W/m 1,3 C 2,9 C 22,5 km/h (4 Bft) 100,00 %
28.11.2022 02:26 2,9 C 89 % 0,0 l/m 6,4 km/h (2 Bft) S-SO 157 0 min 0 min 0,000 mm 0,0 UV-I 0 W/m 1,3 C 1,1 C 20,9 km/h (4 Bft) 100,00 %
28.11.2022 02:25 2,9 C 90 % 0,0 l/m 12,9 km/h (3 Bft) S-SO 157 0 min 0 min 0,000 mm 0,0 UV-I 0 W/m 1,4 C -0,5 C 17,7 km/h (3 Bft) 91,30 %
28.11.2022 02:24 2,9 C 90 % 0,0 l/m 12,9 km/h (3 Bft) S-SO 157 0 min 0 min 0,000 mm 0,0 UV-I 0 W/m 1,4 C -0,6 C 16,1 km/h (3 Bft) 100,00 %
28.11.2022 02:23 2,9 C 90 % 0,0 l/m 11,3 km/h (2 Bft) S-SO 157 0 min 0 min 0,000 mm 0,0 UV-I 0 W/m 1,4 C -0,3 C 16,1 km/h (3 Bft) 91,30 %
28.11.2022 02:22 2,8 C 90 % 0,0 l/m 14,5 km/h (3 Bft) S-SO 157 0 min 0 min 0,000 mm 0,0 UV-I 0 W/m 1,3 C -0,9 C 19,3 km/h (3 Bft) 100,00 %
28.11.2022 02:21 2,8 C 90 % 0,0 l/m 12,9 km/h (3 Bft) S-SO 157 0 min 0 min 0,000 mm 0,0 UV-I 0 W/m 1,3 C -0,6 C 19,3 km/h (3 Bft) 95,65 %
28.11.2022 02:20 2,8 C 90 % 0,0 l/m 11,3 km/h (2 Bft) S-SO 157 0 min 0 min 0,000 mm 0,0 UV-I 0 W/m 1,3 C -0,3 C 20,9 km/h (4 Bft) 100,00 %
28.11.2022 02:19 2,8 C 90 % 0,0 l/m 12,9 km/h (3 Bft) S-SO 157 0 min 0 min 0,000 mm 0,0 UV-I 0 W/m 1,3 C -0,6 C 16,1 km/h (3 Bft) 95,65 %
28.11.2022 02:18 2,8 C 90 % 0,0 l/m 11,3 km/h (2 Bft) S-SO 157 0 min 0 min 0,000 mm 0,0 UV-I 0 W/m 1,3 C -0,3 C 16,1 km/h (3 Bft) 100,00 %
28.11.2022 02:17 2,8 C 90 % 0,0 l/m 11,3 km/h (2 Bft) S-SO 157 0 min 0 min 0,000 mm 0,0 UV-I 0 W/m 1,3 C -0,3 C 19,3 km/h (3 Bft) 95,65 %
28.11.2022 02:16 2,8 C 90 % 0,0 l/m 11,3 km/h (2 Bft) S-SO 157 0 min 0 min 0,000 mm 0,0 UV-I 0 W/m 1,3 C -0,3 C 16,1 km/h (3 Bft) 91,30 %
28.11.2022 02:15 2,8 C 90 % 0,0 l/m 12,9 km/h (3 Bft) S-SO 157 0 min 0 min 0,000 mm 0,0 UV-I 0 W/m 1,3 C -0,6 C 19,3 km/h (3 Bft) 100,00 %
28.11.2022 02:14 2,8 C 90 % 0,0 l/m 11,3 km/h (2 Bft) S-SO 157 0 min 0 min 0,000 mm 0,0 UV-I 0 W/m 1,3 C -0,3 C 16,1 km/h (3 Bft) 95,65 %
28.11.2022 02:13 2,8 C 90 % 0,0 l/m 11,3 km/h (2 Bft) S-SO 157 0 min 0 min 0,000 mm 0,0 UV-I 0 W/m 1,3 C -0,3 C 14,5 km/h (3 Bft) 100,00 %
28.11.2022 02:12 2,8 C 90 % 0,0 l/m 11,3 km/h (2 Bft) S-SO 157 0 min 0 min 0,000 mm 0,0 UV-I 0 W/m 1,3 C -0,3 C 17,7 km/h (3 Bft) 91,30 %
28.11.2022 02:11 2,8 C 90 % 0,0 l/m 9,7 km/h (2 Bft) S-SO 157 0 min 0 min 0,000 mm 0,0 UV-I 0 W/m 1,3 C 0,1 C 16,1 km/h (3 Bft) 100,00 %
28.11.2022 02:10 2,8 C 90 % 0,0 l/m 11,3 km/h (2 Bft) S 180 0 min 0 min 0,000 mm 0,0 UV-I 0 W/m 1,3 C -0,3 C 14,5 km/h (3 Bft) 86,96 %
28.11.2022 02:09 2,8 C 90 % 0,0 l/m 12,9 km/h (3 Bft) SO 135 0 min 0 min 0,000 mm 0,0 UV-I 0 W/m 1,3 C -0,6 C 17,7 km/h (3 Bft) 95,65 %
28.11.2022 02:08 2,8 C 90 % 0,0 l/m 11,3 km/h (2 Bft) S-SO 157 0 min 0 min 0,000 mm 0,0 UV-I 0 W/m 1,3 C -0,3 C 12,9 km/h (3 Bft) 91,30 %
28.11.2022 02:07 2,8 C 90 % 0,0 l/m 8,0 km/h (2 Bft) S-SO 157 0 min 0 min 0,000 mm 0,0 UV-I 0 W/m 1,3 C 0,6 C 14,5 km/h (3 Bft) 95,65 %
28.11.2022 02:06 2,8 C 90 % 0,0 l/m 8,0 km/h (2 Bft) S 180 0 min 0 min 0,000 mm 0,0 UV-I 0 W/m 1,3 C 0,6 C 11,3 km/h (2 Bft) 95,65 %
28.11.2022 02:05 2,8 C 90 % 0,0 l/m 9,7 km/h (2 Bft) S-SO 157 0 min 0 min 0,000 mm 0,0 UV-I 0 W/m 1,3 C 0,1 C 11,3 km/h (2 Bft) 95,65 %
28.11.2022 02:04 2,8 C 90 % 0,0 l/m 9,7 km/h (2 Bft) S-SO 157 0 min 0 min 0,000 mm 0,0 UV-I 0 W/m 1,3 C 0,1 C 12,9 km/h (3 Bft) 95,65 %
28.11.2022 02:03 2,8 C 90 % 0,0 l/m 16,1 km/h (3 Bft) S 180 0 min 0 min 0,000 mm 0,0 UV-I 0 W/m 1,3 C -1,1 C 19,3 km/h (3 Bft) 91,30 %
28.11.2022 02:02 2,8 C 90 % 0,0 l/m 6,4 km/h (2 Bft) S-SO 157 0 min 0 min 0,000 mm 0,0 UV-I 0 W/m 1,3 C 1,1 C 12,9 km/h (3 Bft) 95,65 %
28.11.2022 02:01 2,8 C 90 % 0,0 l/m 11,3 km/h (2 Bft) S 180 0 min 0 min 0,000 mm 0,0 UV-I 0 W/m 1,3 C -0,3 C 17,7 km/h (3 Bft) 100,00 %
28.11.2022 02:00 2,8 C 90 % 0,0 l/m 9,7 km/h (2 Bft) SO 135 0 min 0 min 0,000 mm 0,0 UV-I 0 W/m 1,3 C 0,1 C 12,9 km/h (3 Bft) 100,00 %
28.11.2022 01:59 2,8 C 90 % 0,0 l/m 8,0 km/h (2 Bft) S-SO 157 0 min 0 min 0,000 mm 0,0 UV-I 0 W/m 1,3 C 0,6 C 14,5 km/h (3 Bft) 100,00 %
28.11.2022 01:58 2,8 C 90 % 0,0 l/m 9,7 km/h (2 Bft) S-SO 157 0 min 0 min 0,000 mm 0,0 UV-I 0 W/m 1,3 C 0,1 C 14,5 km/h (3 Bft) 100,00 %
28.11.2022 01:57 2,8 C 90 % 0,0 l/m 8,0 km/h (2 Bft) S-SO 157 0 min 0 min 0,000 mm 0,0 UV-I 0 W/m 1,3 C 0,6 C 14,5 km/h (3 Bft) 100,00 %
28.11.2022 01:56 2,8 C 90 % 0,0 l/m 8,0 km/h (2 Bft) S-SO 157 0 min 0 min 0,000 mm 0,0 UV-I 0 W/m 1,3 C 0,6 C 11,3 km/h (2 Bft) 100,00 %
28.11.2022 01:55 2,8 C 90 % 0,0 l/m 11,3 km/h (2 Bft) SO 135 0 min 0 min 0,000 mm 0,0 UV-I 0 W/m 1,3 C -0,3 C 16,1 km/h (3 Bft) 95,65 %
28.11.2022 01:54 2,8 C 90 % 0,0 l/m 9,7 km/h (2 Bft) S 180 0 min 0 min 0,000 mm 0,0 UV-I 0 W/m 1,3 C 0,1 C 17,7 km/h (3 Bft) 100,00 %
28.11.2022 01:53 2,8 C 90 % 0,0 l/m 8,0 km/h (2 Bft) S-SO 157 0 min 0 min 0,000 mm 0,0 UV-I 0 W/m 1,3 C 0,6 C 12,9 km/h (3 Bft) 100,00 %
28.11.2022 01:52 2,8 C 90 % 0,0 l/m 11,3 km/h (2 Bft) S-SO 157 0 min 0 min 0,000 mm 0,0 UV-I 0 W/m 1,3 C -0,3 C 14,5 km/h (3 Bft) 100,00 %
28.11.2022 01:51 2,8 C 90 % 0,0 l/m 8,0 km/h (2 Bft) S-SO 157 0 min 0 min 0,000 mm 0,0 UV-I 0 W/m 1,3 C 0,6 C 12,9 km/h (3 Bft) 100,00 %
28.11.2022 01:50 2,8 C 90 % 0,0 l/m 9,7 km/h (2 Bft) S-SO 157 0 min 0 min 0,000 mm 0,0 UV-I 0 W/m 1,3 C 0,1 C 14,5 km/h (3 Bft) 100,00 %
28.11.2022 01:49 2,9 C 90 % 0,0 l/m 12,9 km/h (3 Bft) S-SO 157 0 min 0 min 0,000 mm 0,0 UV-I 0 W/m 1,4 C -0,6 C 19,3 km/h (3 Bft) 100,00 %
28.11.2022 01:48 2,8 C 90 % 0,0 l/m 9,7 km/h (2 Bft) S-SO 157 0 min 0 min 0,000 mm 0,0 UV-I 0 W/m 1,3 C 0,1 C 16,1 km/h (3 Bft) 95,65 %
28.11.2022 01:47 2,8 C 90 % 0,0 l/m 9,7 km/h (2 Bft) S-SO 157 0 min 0 min 0,000 mm 0,0 UV-I 0 W/m 1,3 C 0,1 C 16,1 km/h (3 Bft) 100,00 %
28.11.2022 01:46 2,8 C 90 % 0,0 l/m 8,0 km/h (2 Bft) S 180 0 min 0 min 0,000 mm 0,0 UV-I 0 W/m 1,3 C 0,6 C 12,9 km/h (3 Bft) 100,00 %
28.11.2022 01:45 2,8 C 90 % 0,0 l/m 9,7 km/h (2 Bft) S-SO 157 0 min 0 min 0,000 mm 0,0 UV-I 0 W/m 1,3 C 0,1 C 14,5 km/h (3 Bft) 100,00 %
28.11.2022 01:44 2,9 C 90 % 0,0 l/m 11,3 km/h (2 Bft) S-SO 157 0 min 0 min 0,000 mm 0,0 UV-I 0 W/m 1,4 C -0,3 C 14,5 km/h (3 Bft) 100,00 %
28.11.2022 01:43 2,9 C 90 % 0,0 l/m 12,9 km/h (3 Bft) S-SO 157 0 min 0 min 0,000 mm 0,0 UV-I 0 W/m 1,4 C -0,6 C 20,9 km/h (4 Bft) 100,00 %
28.11.2022 01:42 2,9 C 90 % 0,0 l/m 14,5 km/h (3 Bft) S-SO 157 0 min 0 min 0,000 mm 0,0 UV-I 0 W/m 1,4 C -0,9 C 19,3 km/h (3 Bft) 95,65 %
28.11.2022 01:41 2,9 C 90 % 0,0 l/m 8,0 km/h (2 Bft) S-SO 157 0 min 0 min 0,000 mm 0,0 UV-I 0 W/m 1,4 C 0,7 C 12,9 km/h (3 Bft) 95,65 %
28.11.2022 01:40 2,9 C 89 % 0,0 l/m 12,9 km/h (3 Bft) S-SO 157 0 min 0 min 0,000 mm 0,0 UV-I 0 W/m 1,3 C -0,5 C 19,3 km/h (3 Bft) 95,65 %
28.11.2022 01:39 2,9 C 89 % 0,0 l/m 16,1 km/h (3 Bft) S-SO 157 0 min 0 min 0,000 mm 0,0 UV-I 0 W/m 1,3 C -1,0 C 19,3 km/h (3 Bft) 100,00 %
28.11.2022 01:38 2,9 C 89 % 0,0 l/m 11,3 km/h (2 Bft) S-SO 157 0 min 0 min 0,000 mm 0,0 UV-I 0 W/m 1,3 C -0,1 C 16,1 km/h (3 Bft) 95,65 %
28.11.2022 01:37 2,9 C 89 % 0,0 l/m 11,3 km/h (2 Bft) S-SO 157 0 min 0 min 0,000 mm 0,0 UV-I 0 W/m 1,3 C -0,1 C 17,7 km/h (3 Bft) 100,00 %
28.11.2022 01:36 2,9 C 89 % 0,0 l/m 9,7 km/h (2 Bft) S-SO 157 0 min 0 min 0,000 mm 0,0 UV-I 0 W/m 1,3 C 0,2 C 16,1 km/h (3 Bft) 95,65 %
28.11.2022 01:35 2,9 C 89 % 0,0 l/m 12,9 km/h (3 Bft) S-SO 157 0 min 0 min 0,000 mm 0,0 UV-I 0 W/m 1,3 C -0,5 C 17,7 km/h (3 Bft) 100,00 %
28.11.2022 01:34 2,9 C 89 % 0,0 l/m 8,0 km/h (2 Bft) S 180 0 min 0 min 0,000 mm 0,0 UV-I 0 W/m 1,3 C 0,7 C 9,7 km/h (2 Bft) 82,61 %
28.11.2022 01:33 2,9 C 89 % 0,0 l/m 12,9 km/h (3 Bft) S-SO 157 0 min 0 min 0,000 mm 0,0 UV-I 0 W/m 1,3 C -0,5 C 19,3 km/h (3 Bft) 100,00 %
28.11.2022 01:32 2,9 C 89 % 0,0 l/m 6,4 km/h (2 Bft) S-SO 157 0 min 0 min 0,000 mm 0,0 UV-I 0 W/m 1,3 C 1,2 C 9,7 km/h (2 Bft) 100,00 %
28.11.2022 01:31 2,9 C 89 % 0,0 l/m 9,7 km/h (2 Bft) S-SO 157 0 min 0 min 0,000 mm 0,0 UV-I 0 W/m 1,3 C 0,2 C 11,3 km/h (2 Bft) 100,00 %
28.11.2022 01:30 2,9 C 89 % 0,0 l/m 9,7 km/h (2 Bft) S-SO 157 0 min 0 min 0,000 mm 0,0 UV-I 0 W/m 1,3 C 0,2 C 14,5 km/h (3 Bft) 100,00 %
28.11.2022 01:29 2,9 C 89 % 0,0 l/m 11,3 km/h (2 Bft) S-SO 157 0 min 0 min 0,000 mm 0,0 UV-I 0 W/m 1,3 C -0,1 C 16,1 km/h (3 Bft) 100,00 %
28.11.2022 01:28 2,9 C 89 % 0,0 l/m 11,3 km/h (2 Bft) S 180 0 min 0 min 0,000 mm 0,0 UV-I 0 W/m 1,3 C -0,1 C 14,5 km/h (3 Bft) 100,00 %
28.11.2022 01:27 2,9 C 89 % 0,0 l/m 9,7 km/h (2 Bft) S-SO 157 0 min 0 min 0,000 mm 0,0 UV-I 0 W/m 1,3 C 0,2 C 14,5 km/h (3 Bft) 95,65 %
28.11.2022 01:26 2,9 C 89 % 0,0 l/m 11,3 km/h (2 Bft) S-SO 157 0 min 0 min 0,000 mm 0,0 UV-I 0 W/m 1,3 C -0,1 C 14,5 km/h (3 Bft) 100,00 %
28.11.2022 01:25 2,9 C 89 % 0,0 l/m 9,7 km/h (2 Bft) S-SO 157 0 min 0 min 0,000 mm 0,0 UV-I 0 W/m 1,3 C 0,2 C 14,5 km/h (3 Bft) 100,00 %
28.11.2022 01:24 2,9 C 89 % 0,0 l/m 11,3 km/h (2 Bft) S-SO 157 0 min 0 min 0,000 mm 0,0 UV-I 0 W/m 1,3 C -0,1 C 17,7 km/h (3 Bft) 100,00 %
28.11.2022 01:23 2,9 C 89 % 0,0 l/m 11,3 km/h (2 Bft) S-SO 157 0 min 0 min 0,000 mm 0,0 UV-I 0 W/m 1,3 C -0,1 C 17,7 km/h (3 Bft) 100,00 %
28.11.2022 01:22 2,9 C 89 % 0,0 l/m 9,7 km/h (2 Bft) S-SO 157 0 min 0 min 0,000 mm 0,0 UV-I 0 W/m 1,3 C 0,2 C 16,1 km/h (3 Bft) 100,00 %
28.11.2022 01:21 2,9 C 89 % 0,0 l/m 16,1 km/h (3 Bft) S-SO 157 0 min 0 min 0,000 mm 0,0 UV-I 0 W/m 1,3 C -1,0 C 20,9 km/h (4 Bft) 100,00 %
28.11.2022 01:20 2,9 C 89 % 0,0 l/m 12,9 km/h (3 Bft) S-SO 157 0 min 0 min 0,000 mm 0,0 UV-I 0 W/m 1,3 C -0,5 C 19,3 km/h (3 Bft) 95,65 %
28.11.2022 01:19 2,9 C 89 % 0,0 l/m 14,5 km/h (3 Bft) S-SO 157 0 min 0 min 0,000 mm 0,0 UV-I 0 W/m 1,3 C -0,8 C 19,3 km/h (3 Bft) 100,00 %
28.11.2022 01:18 2,9 C 89 % 0,0 l/m 12,9 km/h (3 Bft) S 180 0 min 0 min 0,000 mm 0,0 UV-I 0 W/m 1,3 C -0,5 C 20,9 km/h (4 Bft) 100,00 %
28.11.2022 01:17 2,9 C 89 % 0,0 l/m 11,3 km/h (2 Bft) S-SO 157 0 min 0 min 0,000 mm 0,0 UV-I 0 W/m 1,3 C -0,1 C 14,5 km/h (3 Bft) 100,00 %
28.11.2022 01:16 2,9 C 89 % 0,0 l/m 14,5 km/h (3 Bft) S 180 0 min 0 min 0,000 mm 0,0 UV-I 0 W/m 1,3 C -0,8 C 19,3 km/h (3 Bft) 100,00 %
28.11.2022 01:15 2,9 C 89 % 0,0 l/m 11,3 km/h (2 Bft) S 180 0 min 0 min 0,000 mm 0,0 UV-I 0 W/m 1,3 C -0,1 C 16,1 km/h (3 Bft) 95,65 %
28.11.2022 01:14 2,9 C 89 % 0,0 l/m 9,7 km/h (2 Bft) S-SO 157 0 min 0 min 0,000 mm 0,0 UV-I 0 W/m 1,3 C 0,2 C 14,5 km/h (3 Bft) 100,00 %
28.11.2022 01:13 2,9 C 89 % 0,0 l/m 11,3 km/h (2 Bft) S 180 0 min 0 min 0,000 mm 0,0 UV-I 0 W/m 1,3 C -0,1 C 14,5 km/h (3 Bft) 91,30 %
28.11.2022 01:12 2,9 C 89 % 0,0 l/m 9,7 km/h (2 Bft) S 180 0 min 0 min 0,000 mm 0,0 UV-I 0 W/m 1,3 C 0,2 C 14,5 km/h (3 Bft) 100,00 %
28.11.2022 01:11 2,9 C 89 % 0,0 l/m 9,7 km/h (2 Bft) S 180 0 min 0 min 0,000 mm 0,0 UV-I 0 W/m 1,3 C 0,2 C 20,9 km/h (4 Bft) 100,00 %
28.11.2022 01:10 2,9 C 89 % 0,0 l/m 14,5 km/h (3 Bft) S-SO 157 0 min 0 min 0,000 mm 0,0 UV-I 0 W/m 1,3 C -0,8 C 20,9 km/h (4 Bft) 95,65 %
28.11.2022 01:09 2,9 C 89 % 0,0 l/m 12,9 km/h (3 Bft) S 180 0 min 0 min 0,000 mm 0,0 UV-I 0 W/m 1,3 C -0,5 C 24,1 km/h (4 Bft) 95,65 %
28.11.2022 01:08 2,9 C 89 % 0,0 l/m 6,4 km/h (2 Bft) S-SW 202 0 min 0 min 0,000 mm 0,0 UV-I 0 W/m 1,3 C 1,2 C 11,3 km/h (2 Bft) 95,65 %
28.11.2022 01:07 2,9 C 89 % 0,0 l/m 9,7 km/h (2 Bft) S 180 0 min 0 min 0,000 mm 0,0 UV-I 0 W/m 1,3 C 0,2 C 12,9 km/h (3 Bft) 95,65 %
28.11.2022 01:06 2,9 C 89 % 0,0 l/m 6,4 km/h (2 Bft) S 180 0 min 0 min 0,000 mm 0,0 UV-I 0 W/m 1,3 C 1,2 C 9,7 km/h (2 Bft) 86,96 %
28.11.2022 01:05 2,9 C 89 % 0,0 l/m 9,7 km/h (2 Bft) S-SO 157 0 min 0 min 0,000 mm 0,0 UV-I 0 W/m 1,3 C 0,2 C 14,5 km/h (3 Bft) 100,00 %
28.11.2022 01:04 2,9 C 89 % 0,0 l/m 9,7 km/h (2 Bft) S 180 0 min 0 min 0,000 mm 0,0 UV-I 0 W/m 1,3 C 0,2 C 14,5 km/h (3 Bft) 91,30 %
28.11.2022 01:03 2,9 C 89 % 0,0 l/m 8,0 km/h (2 Bft) S-SO 157 0 min 0 min 0,000 mm 0,0 UV-I 0 W/m 1,3 C 0,7 C 9,7 km/h (2 Bft) 100,00 %
28.11.2022 01:02 2,9 C 89 % 0,0 l/m 11,3 km/h (2 Bft) S 180 0 min 0 min 0,000 mm 0,0 UV-I 0 W/m 1,3 C -0,1 C 17,7 km/h (3 Bft) 95,65 %
28.11.2022 01:01 2,9 C 89 % 0,0 l/m 3,2 km/h (1 Bft) S-SW 202 0 min 0 min 0,000 mm 0,0 UV-I 0 W/m 1,3 C 2,9 C 6,4 km/h (2 Bft) 100,00 %
28.11.2022 01:00 3,0 C 89 % 0,0 l/m 8,0 km/h (2 Bft) S-SW 202 0 min 0 min 0,000 mm 0,0 UV-I 0 W/m 1,4 C 0,7 C 14,5 km/h (3 Bft) 95,65 %
28.11.2022 00:59 3,0 C 89 % 0,0 l/m 9,7 km/h (2 Bft) S 180 0 min 0 min 0,000 mm 0,0 UV-I 0 W/m 1,4 C 0,2 C 14,5 km/h (3 Bft) 95,65 %
28.11.2022 00:58 3,0 C 89 % 0,0 l/m 6,4 km/h (2 Bft) S 180 0 min 0 min 0,000 mm 0,0 UV-I 0 W/m 1,4 C 1,3 C 11,3 km/h (2 Bft) 95,65 %
28.11.2022 00:57 3,0 C 89 % 0,0 l/m 9,7 km/h (2 Bft) S-SO 157 0 min 0 min 0,000 mm 0,0 UV-I 0 W/m 1,4 C 0,3 C 11,3 km/h (2 Bft) 95,65 %
28.11.2022 00:56 3,0 C 89 % 0,0 l/m 8,0 km/h (2 Bft) S-SO 157 0 min 0 min 0,000 mm 0,0 UV-I 0 W/m 1,4 C 0,8 C 12,9 km/h (3 Bft) 100,00 %
28.11.2022 00:55 3,0 C 89 % 0,0 l/m 8,0 km/h (2 Bft) SO 135 0 min 0 min 0,000 mm 0,0 UV-I 0 W/m 1,4 C 0,8 C 11,3 km/h (2 Bft) 95,65 %
28.11.2022 00:54 3,0 C 89 % 0,0 l/m 6,4 km/h (2 Bft) S-SW 202 0 min 0 min 0,000 mm 0,0 UV-I 0 W/m 1,4 C 1,3 C 9,7 km/h (2 Bft) 100,00 %
28.11.2022 00:53 3,0 C 89 % 0,0 l/m 8,0 km/h (2 Bft) SO 135 0 min 0 min 0,000 mm 0,0 UV-I 0 W/m 1,4 C 0,8 C 12,9 km/h (3 Bft) 95,65 %
28.11.2022 00:52 3,0 C 89 % 0,0 l/m 8,0 km/h (2 Bft) S-SO 157 0 min 0 min 0,000 mm 0,0 UV-I 0 W/m 1,4 C 0,8 C 11,3 km/h (2 Bft) 95,65 %
28.11.2022 00:51 3,0 C 89 % 0,0 l/m 6,4 km/h (2 Bft) S 180 0 min 0 min 0,000 mm 0,0 UV-I 0 W/m 1,4 C 1,3 C 9,7 km/h (2 Bft) 95,65 %
28.11.2022 00:50 3,0 C 89 % 0,0 l/m 9,7 km/h (2 Bft) S-SO 157 0 min 0 min 0,000 mm 0,0 UV-I 0 W/m 1,4 C 0,3 C 14,5 km/h (3 Bft) 100,00 %
28.11.2022 00:49 3,0 C 89 % 0,0 l/m 9,7 km/h (2 Bft) S-SO 157 0 min 0 min 0,000 mm 0,0 UV-I 0 W/m 1,4 C 0,3 C 17,7 km/h (3 Bft) 100,00 %
28.11.2022 00:48 3,0 C 89 % 0,0 l/m 4,8 km/h (1 Bft) S 180 0 min 0 min 0,000 mm 0,0 UV-I 0 W/m 1,4 C 1,9 C 6,4 km/h (2 Bft) 100,00 %
28.11.2022 00:47 3,0 C 89 % 0,0 l/m 3,2 km/h (1 Bft) S-SO 157 0 min 0 min 0,000 mm 0,0 UV-I 0 W/m 1,4 C 3,0 C 6,4 km/h (2 Bft) 95,65 %
28.11.2022 00:46 3,0 C 89 % 0,0 l/m 6,4 km/h (2 Bft) S 180 0 min 0 min 0,000 mm 0,0 UV-I 0 W/m 1,4 C 1,3 C 9,7 km/h (2 Bft) 100,00 %
28.11.2022 00:45 3,1 C 89 % 0,0 l/m 8,0 km/h (2 Bft) S 180 0 min 0 min 0,000 mm 0,0 UV-I 0 W/m 1,5 C 0,8 C 11,3 km/h (2 Bft) 95,65 %
28.11.2022 00:44 3,1 C 89 % 0,0 l/m 11,3 km/h (2 Bft) S 180 0 min 0 min 0,000 mm 0,0 UV-I 0 W/m 1,5 C -0,0 C 17,7 km/h (3 Bft) 100,00 %
28.11.2022 00:43 3,1 C 89 % 0,0 l/m 8,0 km/h (2 Bft) S 180 0 min 0 min 0,000 mm 0,0 UV-I 0 W/m 1,5 C 0,9 C 9,7 km/h (2 Bft) 100,00 %
28.11.2022 00:42 3,1 C 89 % 0,0 l/m 6,4 km/h (2 Bft) S 180 0 min 0 min 0,000 mm 0,0 UV-I 0 W/m 1,5 C 1,4 C 11,3 km/h (2 Bft) 100,00 %
28.11.2022 00:41 3,1 C 89 % 0,0 l/m 4,8 km/h (1 Bft) S 180 0 min 0 min 0,000 mm 0,0 UV-I 0 W/m 1,5 C 2,0 C 8,0 km/h (2 Bft) 100,00 %
28.11.2022 00:40 3,1 C 89 % 0,0 l/m 6,4 km/h (2 Bft) S 180 0 min 0 min 0,000 mm 0,0 UV-I 0 W/m 1,5 C 1,4 C 9,7 km/h (2 Bft) 95,65 %
28.11.2022 00:39 3,1 C 89 % 0,0 l/m 8,0 km/h (2 Bft) S 180 0 min 0 min 0,000 mm 0,0 UV-I 0 W/m 1,5 C 0,9 C 12,9 km/h (3 Bft) 100,00 %
28.11.2022 00:38 3,1 C 89 % 0,0 l/m 9,7 km/h (2 Bft) S 180 0 min 0 min 0,000 mm 0,0 UV-I 0 W/m 1,5 C 0,5 C 14,5 km/h (3 Bft) 91,30 %
28.11.2022 00:37 3,1 C 89 % 0,0 l/m 6,4 km/h (2 Bft) S-SW 202 0 min 0 min 0,000 mm 0,0 UV-I 0 W/m 1,5 C 1,4 C 11,3 km/h (2 Bft) 100,00 %
28.11.2022 00:36 3,1 C 89 % 0,0 l/m 6,4 km/h (2 Bft) S 180 0 min 0 min 0,000 mm 0,0 UV-I 0 W/m 1,5 C 1,4 C 11,3 km/h (2 Bft) 95,65 %
28.11.2022 00:35 3,1 C 89 % 0,0 l/m 8,0 km/h (2 Bft) S-SO 157 0 min 0 min 0,000 mm 0,0 UV-I 0 W/m 1,5 C 0,9 C 14,5 km/h (3 Bft) 100,00 %
28.11.2022 00:34 3,1 C 89 % 0,0 l/m 9,7 km/h (2 Bft) S-SO 157 0 min 0 min 0,000 mm 0,0 UV-I 0 W/m 1,5 C 0,5 C 12,9 km/h (3 Bft) 95,65 %
28.11.2022 00:33 3,1 C 89 % 0,0 l/m 11,3 km/h (2 Bft) S 180 0 min 0 min 0,000 mm 0,0 UV-I 0 W/m 1,5 C 0,1 C 16,1 km/h (3 Bft) 100,00 %
28.11.2022 00:32 3,1 C 89 % 0,0 l/m 11,3 km/h (2 Bft) S 180 0 min 0 min 0,000 mm 0,0 UV-I 0 W/m 1,5 C 0,1 C 16,1 km/h (3 Bft) 95,65 %
28.11.2022 00:31 3,1 C 89 % 0,0 l/m 9,7 km/h (2 Bft) S 180 0 min 0 min 0,000 mm 0,0 UV-I 0 W/m 1,5 C 0,5 C 14,5 km/h (3 Bft) 95,65 %
28.11.2022 00:30 3,1 C 89 % 0,0 l/m 8,0 km/h (2 Bft) S-SO 157 0 min 0 min 0,000 mm 0,0 UV-I 0 W/m 1,5 C 0,9 C 14,5 km/h (3 Bft) 95,65 %
28.11.2022 00:29 3,1 C 89 % 0,0 l/m 3,2 km/h (1 Bft) S 180 0 min 0 min 0,000 mm 0,0 UV-I 0 W/m 1,5 C 3,1 C 9,7 km/h (2 Bft) 100,00 %
28.11.2022 00:28 3,1 C 89 % 0,0 l/m 6,4 km/h (2 Bft) S 180 0 min 0 min 0,000 mm 0,0 UV-I 0 W/m 1,5 C 1,4 C 8,0 km/h (2 Bft) 100,00 %
28.11.2022 00:27 3,1 C 89 % 0,0 l/m 8,0 km/h (2 Bft) S 180 0 min 0 min 0,000 mm 0,0 UV-I 0 W/m 1,5 C 0,9 C 12,9 km/h (3 Bft) 100,00 %
28.11.2022 00:26 3,1 C 89 % 0,0 l/m 9,7 km/h (2 Bft) S 180 0 min 0 min 0,000 mm 0,0 UV-I 0 W/m 1,5 C 0,5 C 12,9 km/h (3 Bft) 100,00 %
28.11.2022 00:25 3,1 C 89 % 0,0 l/m 12,9 km/h (3 Bft) S-SO 157 0 min 0 min 0,000 mm 0,0 UV-I 0 W/m 1,5 C -0,2 C 17,7 km/h (3 Bft) 100,00 %
28.11.2022 00:24 3,1 C 89 % 0,0 l/m 12,9 km/h (3 Bft) S 180 0 min 0 min 0,000 mm 0,0 UV-I 0 W/m 1,5 C -0,2 C 19,3 km/h (3 Bft) 95,65 %
28.11.2022 00:23 3,1 C 89 % 0,0 l/m 6,4 km/h (2 Bft) S 180 0 min 0 min 0,000 mm 0,0 UV-I 0 W/m 1,5 C 1,4 C 14,5 km/h (3 Bft) 100,00 %
28.11.2022 00:22 3,1 C 89 % 0,0 l/m 6,4 km/h (2 Bft) S 180 0 min 0 min 0,000 mm 0,0 UV-I 0 W/m 1,5 C 1,4 C 9,7 km/h (2 Bft) 100,00 %
28.11.2022 00:21 3,1 C 90 % 0,0 l/m 8,0 km/h (2 Bft) S-SO 157 0 min 0 min 0,000 mm 0,0 UV-I 0 W/m 1,6 C 0,9 C 9,7 km/h (2 Bft) 100,00 %
28.11.2022 00:20 3,1 C 90 % 0,0 l/m 8,0 km/h (2 Bft) S 180 0 min 0 min 0,000 mm 0,0 UV-I 0 W/m 1,6 C 0,9 C 11,3 km/h (2 Bft) 100,00 %
28.11.2022 00:19 3,1 C 90 % 0,0 l/m 8,0 km/h (2 Bft) S-SO 157 0 min 0 min 0,000 mm 0,0 UV-I 0 W/m 1,6 C 0,9 C 19,3 km/h (3 Bft) 95,65 %
28.11.2022 00:18 3,1 C 90 % 0,0 l/m 14,5 km/h (3 Bft) S 180 0 min 0 min 0,000 mm 0,0 UV-I 0 W/m 1,6 C -0,5 C 20,9 km/h (4 Bft) 100,00 %
28.11.2022 00:17 3,1 C 90 % 0,0 l/m 12,9 km/h (3 Bft) S 180 0 min 0 min 0,000 mm 0,0 UV-I 0 W/m 1,6 C -0,2 C 19,3 km/h (3 Bft) 95,65 %
28.11.2022 00:16 3,1 C 90 % 0,0 l/m 6,4 km/h (2 Bft) S 180 0 min 0 min 0,000 mm 0,0 UV-I 0 W/m 1,6 C 1,4 C 11,3 km/h (2 Bft) 100,00 %
28.11.2022 00:15 3,1 C 90 % 0,0 l/m 9,7 km/h (2 Bft) S 180 0 min 0 min 0,000 mm 0,0 UV-I 0 W/m 1,6 C 0,5 C 12,9 km/h (3 Bft) 100,00 %
28.11.2022 00:14 3,1 C 90 % 0,0 l/m 9,7 km/h (2 Bft) S 180 0 min 0 min 0,000 mm 0,0 UV-I 0 W/m 1,6 C 0,5 C 12,9 km/h (3 Bft) 100,00 %
28.11.2022 00:13 3,1 C 90 % 0,0 l/m 11,3 km/h (2 Bft) S 180 0 min 0 min 0,000 mm 0,0 UV-I 0 W/m 1,6 C 0,1 C 17,7 km/h (3 Bft) 100,00 %
28.11.2022 00:12 3,1 C 90 % 0,0 l/m 9,7 km/h (2 Bft) S 180 0 min 0 min 0,000 mm 0,0 UV-I 0 W/m 1,6 C 0,5 C 14,5 km/h (3 Bft) 100,00 %
28.11.2022 00:11 3,1 C 90 % 0,0 l/m 11,3 km/h (2 Bft) S 180 0 min 0 min 0,000 mm 0,0 UV-I 0 W/m 1,6 C 0,1 C 17,7 km/h (3 Bft) 100,00 %
28.11.2022 00:10 3,1 C 90 % 0,0 l/m 12,9 km/h (3 Bft) S-SO 157 0 min 0 min 0,000 mm 0,0 UV-I 0 W/m 1,6 C -0,2 C 19,3 km/h (3 Bft) 100,00 %
28.11.2022 00:09 3,1 C 90 % 0,0 l/m 14,5 km/h (3 Bft) S-SO 157 0 min 0 min 0,000 mm 0,0 UV-I 0 W/m 1,6 C -0,5 C 19,3 km/h (3 Bft) 95,65 %
28.11.2022 00:08 3,1 C 90 % 0,0 l/m 9,7 km/h (2 Bft) S-SO 157 0 min 0 min 0,000 mm 0,0 UV-I 0 W/m 1,6 C 0,5 C 14,5 km/h (3 Bft) 100,00 %
28.11.2022 00:07 3,1 C 90 % 0,0 l/m 9,7 km/h (2 Bft) S-SO 157 0 min 0 min 0,000 mm 0,0 UV-I 0 W/m 1,6 C 0,5 C 14,5 km/h (3 Bft) 100,00 %
28.11.2022 00:06 3,1 C 90 % 0,0 l/m 11,3 km/h (2 Bft) S 180 0 min 0 min 0,000 mm 0,0 UV-I 0 W/m 1,6 C 0,1 C 14,5 km/h (3 Bft) 95,65 %
28.11.2022 00:05 3,1 C 90 % 0,0 l/m 9,7 km/h (2 Bft) S-SO 157 0 min 0 min 0,000 mm 0,0 UV-I 0 W/m 1,6 C 0,5 C 14,5 km/h (3 Bft) 100,00 %
28.11.2022 00:04 3,1 C 90 % 0,0 l/m 8,0 km/h (2 Bft) S-SO 157 0 min 0 min 0,000 mm 0,0 UV-I 0 W/m 1,6 C 0,9 C 12,9 km/h (3 Bft) 95,65 %
28.11.2022 00:03 3,1 C 90 % 0,0 l/m 8,0 km/h (2 Bft) S-SO 157 0 min 0 min 0,000 mm 0,0 UV-I 0 W/m 1,6 C 0,9 C 12,9 km/h (3 Bft) 100,00 %
28.11.2022 00:02 3,1 C 90 % 0,0 l/m 12,9 km/h (3 Bft) S-SO 157 0 min 0 min 0,000 mm 0,0 UV-I 0 W/m 1,6 C -0,2 C 17,7 km/h (3 Bft) 91,30 %
28.11.2022 00:01 3,1 C 90 % 0,0 l/m 11,3 km/h (2 Bft) S-SO 157 0 min 0 min 0,000 mm 0,0 UV-I 0 W/m 1,6 C 0,1 C 19,3 km/h (3 Bft) 91,30 %
28.11.2022 00:00 3,1 C 90 % 0,0 l/m 11,3 km/h (2 Bft) S-SO 157 0 min 0 min 0,000 mm 0,0 UV-I 0 W/m 1,6 C 0,1 C 16,1 km/h (3 Bft) 91,30 %
_ Min-Zeit 08:51 00:22 - 02:27 - - - - - - - 08:52 04:52 00:47 01:34
Minimum _ 2,6 C 89 % - 1,6 km/h (1 Bft) - - - - - - - 1,1 C -1,4 C 6,4 km/h (2 Bft) 82,61 %
_ Max-Zeit 00:00 00:00 00:00 04:52 - - 00:00 00:00 00:00 00:00 08:52 00:00 00:29 01:09 00:03
Maximum _ 3,1 C 90 % 0,0 l/m 17,7 km/h
S-SO (3 Bft)
- - 0 min 0 min 0,000 mm 0,0 UV-I 16 W/m 1,6 C 3,1 C 24,1 km/h
S (4 Bft)
100,00 %
Durchschnitt _ 2,8 C 90 % #0,0 l/m 9,6 km/h (2 Bft) S-SO - #0 min. #0 min. #0,000 mm 0,0 UV-I 10 W/m 1,3 C 0,3 C 14,3 km/h (3 Bft) 97,92 %
Walter Karow